FW9986 Weather Reports


time (UTC)temp
F
wind
direction
speed
knots
gust
knots
rain 1hr
in
rain 24hr
in
rain mn
in
humidity
%
barometer
mb
20260506134803 54 349 0.9 5.2 0.00 0.00 0.00 77 1011.5
20260506134703 54 353 0.9 5.2 0.00 0.00 0.00 77 1011.5
20260506134603 54 33 0.9 5.2 0.00 0.00 0.00 77 1011.7
20260506134515 54 33 0.9 5.2 0.00 0.00 0.00 77 1011.7
20260506134504 54 52 0.9 2.6 0.00 0.00 0.00 77 1011.7
20260506134403 54 73 0.9 2.6 0.00 0.00 0.00 77 1011.5
20260506134215 54 58 0.9 2.6 0.00 0.00 0.00 77 1011.6
20260506134203 54 118 0.9 2.6 0.00 0.00 0.00 77 1011.7
20260506134114 54 118 0.9 2.6 0.00 0.00 0.00 77 1011.7
20260506134103 54 98 0.9 2.6 0.00 0.00 0.00 77 1011.6
20260506133803 54 130 0.9 2.6 0.00 0.00 0.00 77 1011.5
20260506133713 54 130 0.9 2.6 0.00 0.00 0.00 77 1011.5
20260506133703 54 131 0.9 3.5 0.00 0.00 0.00 77 1011.7
20260506133604 54 123 0.9 3.5 0.00 0.00 0.00 76 1011.7
20260506133515 54 123 0.9 3.5 0.00 0.00 0.00 76 1011.7
20260506133403 54 122 0.9 3.5 0.00 0.00 0.00 76 1011.5
20260506133318 54 122 0.9 3.5 0.00 0.00 0.00 76 1011.5
20260506133203 54 58 0.9 3.5 0.00 0.00 0.00 76 1011.8
20260506133003 54 25 0.9 3.5 0.00 0.00 0.00 75 1011.7
20260506132904 54 15 0.9 3.5 0.00 0.00 0.00 75 1011.6
20260506132803 54 2 0.9 3.5 0.00 0.00 0.00 75 1011.5
20260506132704 54 357 0.9 3.5 0.00 0.00 0.00 75 1011.5
20260506132603 54 356 0.9 3.5 0.00 0.00 0.00 75 1011.6
20260506132503 54 347 0.9 2.6 0.00 0.00 0.00 75 1011.6
20260506132403 54 345 0.9 2.6 0.00 0.00 0.00 75 1011.4
20260506132306 54 346 0.9 2.6 0.00 0.00 0.00 75 1011.5
20260506132204 54 346 0.9 2.6 0.00 0.00 0.00 75 1011.5
20260506132104 54 358 0.9 2.6 0.00 0.00 0.00 75 1011.5
20260506132003 54 1 0.9 3.5 0.00 0.00 0.00 75 1011.6
20260506131913 54 1 0.9 3.5 0.00 0.00 0.00 75 1011.6
20260506131903 54 3 0.9 3.5 0.00 0.00 0.00 75 1011.6
20260506131803 54 7 0.9 3.5 0.00 0.00 0.00 74 1011.4
20260506131604 54 6 0.9 3.5 0.00 0.00 0.00 74 1011.5
20260506131503 54 6 0.9 3.5 0.00 0.00 0.00 74 1011.5
20260506131403 54 12 0.9 3.5 0.00 0.00 0.00 74 1011.6
20260506131304 54 19 0.9 3.5 0.00 0.00 0.00 74 1011.6
20260506131203 54 6 0.9 3.5 0.00 0.00 0.00 74 1011.6
20260506131103 54 359 0.9 3.5 0.00 0.00 0.00 74 1011.5
20260506131004 55 358 0.9 3.5 0.00 0.00 0.00 74 1011.6
20260506130904 55 351 0.9 3.5 0.00 0.00 0.00 75 1011.7
20260506130803 55 343 0.9 3.5 0.00 0.00 0.00 75 1011.7
20260506130716 55 343 0.9 3.5 0.00 0.00 0.00 75 1011.7
20260506130703 55 345 0.9 3.5 0.00 0.00 0.00 75 1011.5
20260506130604 55 343 0.9 3.5 0.00 0.00 0.00 74 1011.5
20260506130404 55 338 0.9 3.5 0.00 0.00 0.00 74 1011.6
20260506130304 55 343 0.9 3.5 0.00 0.00 0.00 74 1011.5
20260506130204 55 347 0.9 3.5 0.00 0.00 0.00 73 1011.6
20260506130104 55 357 0.9 3.5 0.00 0.00 0.00 73 1011.7
20260506130016 55 357 0.9 3.5 0.00 0.00 0.00 73 1011.7
20260506130003 55 356 0.9 3.5 0.00 0.00 0.00 73 1011.5
20260506125904 55 3 0.9 3.5 0.00 0.00 0.00 73 1011.6
20260506125703 55 8 0.9 5.2 0.00 0.00 0.00 72 1011.6
20260506125604 55 23 0.9 5.2 0.00 0.00 0.00 72 1011.6
20260506125514 55 23 0.9 5.2 0.00 0.00 0.00 72 1011.6
20260506125503 55 19 0.9 5.2 0.00 0.00 0.00 72 1011.6
20260506125404 55 14 0.9 5.2 0.00 0.00 0.00 72 1011.4
20260506125203 56 6 1.7 5.2 0.00 0.00 0.00 71 1011.5
20260506125104 56 356 1.7 6.1 0.00 0.00 0.00 70 1011.6
20260506125003 56 353 1.7 6.1 0.00 0.00 0.00 70 1011.6
20260506124904 56 352 1.7 6.1 0.00 0.00 0.00 69 1011.5
20260506124803 56 348 1.7 6.1 0.00 0.00 0.00 69 1011.5
20260506124704 56 346 1.7 6.1 0.00 0.00 0.00 68 1011.6
20260506124604 56 336 1.7 6.1 0.00 0.00 0.00 68 1011.4
20260506124503 56 338 1.7 6.1 0.00 0.00 0.00 68 1011.5
20260506124403 56 340 1.7 6.1 0.00 0.00 0.00 68 1011.4
20260506124304 56 341 1.7 6.1 0.00 0.00 0.00 68 1011.3
20260506124204 56 341 1.7 6.1 0.00 0.00 0.00 68 1011.4
20260506124103 56 345 1.7 6.1 0.00 0.00 0.00 67 1011.3
20260506124013 56 345 1.7 6.1 0.00 0.00 0.00 67 1011.3
20260506124003 56 338 1.7 6.1 0.00 0.00 0.00 67 1011.4
20260506123903 56 338 1.7 3.5 0.00 0.00 0.00 67 1011.5
20260506123703 56 334 1.7 3.5 0.00 0.00 0.00 68 1011.4
20260506123603 56 332 1.7 3.5 0.00 0.00 0.00 68 1011.3
20260506123504 56 326 1.7 3.5 0.00 0.00 0.00 68 1011.3
20260506123403 56 320 1.7 5.2 0.00 0.00 0.00 68 1011.5
20260506123313 56 320 1.7 5.2 0.00 0.00 0.00 68 1011.5
20260506123304 56 319 1.7 5.2 0.00 0.00 0.00 68 1011.5
20260506123203 56 314 1.7 5.2 0.00 0.00 0.00 67 1011.4
20260506123004 56 310 1.7 5.2 0.00 0.00 0.00 68 1011.4
20260506122904 56 307 1.7 5.2 0.00 0.00 0.00 68 1011.5
20260506122804 56 312 1.7 5.2 0.00 0.00 0.00 68 1011.4
20260506122703 56 311 1.7 5.2 0.00 0.00 0.00 68 1011.5
20260506122613 56 311 1.7 5.2 0.00 0.00 0.00 68 1011.5
20260506122604 56 315 1.7 5.2 0.00 0.00 0.00 67 1011.5
20260506122504 56 320 1.7 5.2 0.00 0.00 0.00 67 1011.3
20260506122305 56 329 1.7 5.2 0.00 0.00 0.00 67 1011.2
20260506122204 57 332 1.7 3.5 0.00 0.00 0.00 67 1011.3
20260506122103 57 332 1.7 6.1 0.00 0.00 0.00 67 1011.4
20260506122003 57 328 1.7 6.1 0.00 0.00 0.00 68 1011.4
20260506121913 57 328 1.7 6.1 0.00 0.00 0.00 68 1011.4
20260506121904 57 330 1.7 6.1 0.00 0.00 0.00 68 1011.5
20260506121804 57 328 1.7 6.1 0.00 0.00 0.00 68 1011.4
20260506121715 57 328 1.7 6.1 0.00 0.00 0.00 68 1011.4
20260506121603 56 325 1.7 6.1 0.00 0.00 0.00 69 1011.4
20260506121403 56 324 1.7 6.1 0.00 0.00 0.00 68 1011.3
20260506121303 56 328 1.7 6.1 0.00 0.00 0.00 68 1011.4
20260506121203 56 326 1.7 6.1 0.00 0.00 0.00 68 1011.4
20260506121103 56 328 1.7 6.1 0.00 0.00 0.00 68 1011.5
20260506121003 56 337 1.7 6.1 0.00 0.00 0.00 68 1011.4
20260506120903 56 338 1.7 6.1 0.00 0.00 0.00 68 1011.5
20260506120803 56 330 1.7 6.1 0.00 0.00 0.00 68 1011.4
20260506120703 56 332 1.7 6.1 0.00 0.00 0.00 69 1011.5
20260506120604 56 332 1.7 6.1 0.00 0.00 0.00 69 1011.5
20260506120503 56 328 1.7 6.1 0.00 0.00 0.00 69 1011.3
20260506120404 56 332 1.7 6.1 0.00 0.00 0.00 69 1011.4
20260506120316 56 332 1.7 6.1 0.00 0.00 0.00 69 1011.4
20260506120303 56 327 1.7 6.1 0.00 0.00 0.00 70 1011.5
20260506120203 56 327 1.7 6.1 0.00 0.00 0.00 70 1011.5
20260506120017 55 329 1.7 6.1 0.00 0.00 0.00 70 1011.4
20260506120003 55 325 1.7 6.1 0.00 0.00 0.00 70 1011.4
20260506115903 55 324 1.7 6.1 0.00 0.00 0.00 70 1011.3
20260506115703 55 326 1.7 5.2 0.00 0.00 0.00 70 1011.5
20260506115604 55 326 1.7 5.2 0.00 0.00 0.00 70 1011.5
20260506115503 55 329 0.9 5.2 0.00 0.00 0.00 70 1011.5
20260506115404 55 331 0.9 5.2 0.00 0.00 0.00 70 1011.4
20260506115306 55 337 1.7 3.5 0.00 0.00 0.00 70 1011.6
20260506115203 55 336 1.7 3.5 0.00 0.00 0.00 70 1011.5
20260506115103 55 334 1.7 3.5 0.00 0.00 0.00 70 1011.3
20260506115003 55 335 1.7 3.5 0.00 0.00 0.00 70 1011.5
20260506114916 55 335 1.7 3.5 0.00 0.00 0.00 70 1011.5
20260506114904 54 335 0.9 3.5 0.00 0.00 0.00 71 1011.5
20260506114803 54 338 0.9 3.5 0.00 0.00 0.00 71 1011.5
20260506114604 54 342 0.9 3.5 0.00 0.00 0.00 71 1011.5
20260506114504 54 337 0.9 3.5 0.00 0.00 0.00 71 1011.5
20260506114403 54 334 0.9 3.5 0.00 0.00 0.00 72 1011.4
20260506114303 54 329 0.9 6.1 0.00 0.00 0.00 72 1011.5
20260506114203 54 327 0.9 6.1 0.00 0.00 0.00 72 1011.6
20260506114103 54 329 0.9 6.1 0.00 0.00 0.00 72 1011.3
20260506114003 54 329 0.9 6.1 0.00 0.00 0.00 72 1011.4
20260506113904 54 329 0.9 6.1 0.00 0.00 0.00 72 1011.4
20260506113804 54 331 0.9 6.1 0.00 0.00 0.00 72 1011.3
20260506113704 54 327 1.7 6.1 0.00 0.00 0.00 72 1011.2
20260506113613 54 327 1.7 6.1 0.00 0.00 0.00 72 1011.2
20260506113603 54 326 1.7 6.1 0.00 0.00 0.00 72 1011.4
20260506113503 54 324 1.7 6.1 0.00 0.00 0.00 73 1011.5
20260506113303 54 314 1.7 6.1 0.00 0.00 0.00 73 1011.4
20260506113203 54 320 1.7 6.1 0.00 0.00 0.00 73 1011.4
20260506113116 54 320 1.7 6.1 0.00 0.00 0.00 73 1011.4
20260506113104 54 314 1.7 5.2 0.00 0.00 0.00 73 1011.2
20260506113003 53 317 1.7 5.2 0.00 0.00 0.00 73 1011.3
20260506112804 53 317 1.7 5.2 0.00 0.00 0.00 73 1011.4
20260506112703 53 318 1.7 5.2 0.00 0.00 0.00 73 1011.4
20260506112614 53 318 1.7 5.2 0.00 0.00 0.00 73 1011.4
20260506112603 53 321 1.7 7.0 0.00 0.00 0.00 73 1011.4
20260506112518 53 321 1.7 7.0 0.00 0.00 0.00 73 1011.4
20260506112503 53 329 1.7 7.0 0.00 0.00 0.00 73 1011.3
20260506112203 53 337 1.7 7.0 0.00 0.00 0.00 73 1011.4
20260506112103 53 340 1.7 7.0 0.00 0.00 0.00 73 1011.2
20260506112003 53 342 1.7 7.0 0.00 0.00 0.00 73 1011.3
20260506111903 53 334 1.7 7.0 0.00 0.00 0.00 74 1011.3
20260506111804 53 337 1.7 7.0 0.00 0.00 0.00 74 1011.4
20260506111707 53 337 1.7 7.0 0.00 0.00 0.00 74 1011.4
20260506111604 53 342 1.7 7.0 0.00 0.00 0.00 73 1011.4
20260506111513 53 342 1.7 7.0 0.00 0.00 0.00 73 1011.4
20260506111503 53 346 1.7 7.0 0.00 0.00 0.00 74 1011.3
20260506111417 53 346 1.7 7.0 0.00 0.00 0.00 74 1011.3
20260506111403 53 349 1.7 6.1 0.00 0.00 0.00 74 1011.3
20260506111104 53 1 1.7 5.2 0.00 0.00 0.00 74 1011.4
20260506111003 53 342 1.7 5.2 0.00 0.00 0.00 74 1011.3
20260506110903 53 346 1.7 7.0 0.00 0.00 0.00 74 1011.4
20260506110804 53 354 1.7 7.0 0.00 0.00 0.00 74 1011.3
20260506110703 53 353 1.7 7.0 0.00 0.00 0.00 74 1011.5
20260506110603 53 351 1.7 7.0 0.00 0.00 0.00 74 1011.3
20260506110503 53 347 1.7 7.0 0.00 0.00 0.00 74 1011.4
20260506110403 53 345 1.7 7.0 0.00 0.00 0.00 74 1011.4
20260506110303 53 338 1.7 7.0 0.00 0.00 0.00 74 1011.4
20260506110203 53 336 2.6 7.0 0.00 0.00 0.00 74 1011.4
20260506110104 53 333 2.6 7.0 0.00 0.00 0.00 74 1011.3
20260506110003 53 336 2.6 7.0 0.00 0.00 0.00 74 1011.4
20260506105903 53 332 2.6 7.0 0.00 0.00 0.00 74 1011.4
20260506105804 53 325 2.6 7.0 0.00 0.00 0.00 73 1011.4
20260506105713 53 325 2.6 7.0 0.00 0.00 0.00 73 1011.4
20260506105703 53 325 2.6 6.1 0.00 0.00 0.00 73 1011.4
20260506105604 53 321 2.6 6.1 0.00 0.00 0.00 73 1011.4
20260506105403 53 317 1.7 6.1 0.00 0.00 0.00 73 1011.4
20260506105305 53 322 1.7 6.1 0.00 0.00 0.00 73 1011.5
20260506105216 53 322 1.7 6.1 0.00 0.00 0.00 73 1011.5
20260506105203 53 318 1.7 6.1 0.00 0.00 0.00 73 1011.6
20260506105115 53 318 1.7 6.1 0.00 0.00 0.00 73 1011.6
20260506105103 53 316 1.7 6.1 0.00 0.00 0.00 73 1011.3
20260506104917 53 316 1.7 6.1 0.00 0.00 0.00 73 1011.4
20260506104803 53 329 1.7 5.2 0.00 0.00 0.00 73 1011.4
20260506104714 53 329 1.7 5.2 0.00 0.00 0.00 73 1011.4
20260506104603 53 346 1.7 5.2 0.00 0.00 0.00 73 1011.6
20260506104403 53 342 1.7 5.2 0.00 0.00 0.00 73 1011.5
20260506104303 53 338 1.7 5.2 0.00 0.00 0.00 72 1011.4
20260506104203 53 335 1.7 5.2 0.00 0.00 0.00 73 1011.5
20260506104103 53 339 1.7 5.2 0.00 0.00 0.00 72 1011.7
20260506104004 54 328 1.7 5.2 0.00 0.00 0.00 72 1011.5
20260506103903 54 338 1.7 5.2 0.00 0.00 0.00 72 1011.4
20260506103803 54 327 1.7 5.2 0.00 0.00 0.00 72 1011.5
20260506103703 54 319 1.7 5.2 0.00 0.00 0.00 71 1011.5
20260506103614 54 319 1.7 5.2 0.00 0.00 0.00 71 1011.5
20260506103604 54 316 1.7 5.2 0.00 0.00 0.00 71 1011.5
20260506103517 54 316 1.7 5.2 0.00 0.00 0.00 71 1011.5
20260506103503 54 319 1.7 5.2 0.00 0.00 0.00 71 1011.4
20260506103314 54 324 1.7 7.0 0.00 0.00 0.00 71 1011.4
20260506103204 54 320 1.7 7.0 0.00 0.00 0.00 71 1011.5
20260506103004 54 323 1.7 7.0 0.00 0.00 0.00 71 1011.4
20260506102914 54 323 1.7 7.0 0.00 0.00 0.00 71 1011.4
20260506102903 54 318 1.7 7.0 0.00 0.00 0.00 71 1011.7
20260506102803 54 322 1.7 7.0 0.00 0.00 0.00 70 1011.4
20260506102614 55 327 1.7 7.0 0.00 0.00 0.00 70 1011.4
20260506102603 55 321 2.6 7.0 0.00 0.00 0.00 70 1011.4
20260506102503 55 320 2.6 7.0 0.00 0.00 0.00 70 1011.4
20260506102315 55 313 2.6 7.0 0.00 0.00 0.00 70 1011.4
20260506102305 55 314 2.6 7.0 0.00 0.00 0.00 70 1011.4
20260506102203 55 317 2.6 7.0 0.00 0.00 0.00 70 1011.3
20260506102003 56 321 2.6 6.1 0.00 0.00 0.00 71 1011.4
20260506101903 56 330 1.7 6.1 0.00 0.00 0.00 71 1011.5
20260506101803 56 335 1.7 6.1 0.00 0.00 0.00 71 1011.4
20260506101703 56 338 1.7 6.1 0.00 0.00 0.00 72 1011.4
20260506101616 56 338 1.7 6.1 0.00 0.00 0.00 72 1011.4
20260506101603 55 346 1.7 6.1 0.00 0.00 0.00 72 1011.4
20260506101504 55 345 1.7 6.1 0.00 0.00 0.00 71 1011.5
20260506101304 55 349 1.7 6.1 0.00 0.00 0.00 71 1011.4
20260506101204 55 351 1.7 6.1 0.00 0.00 0.00 71 1011.4
20260506101103 55 348 1.7 6.1 0.00 0.00 0.00 71 1011.4
20260506101003 55 355 1.7 6.1 0.00 0.00 0.00 71 1011.6
20260506100903 55 348 1.7 6.1 0.00 0.00 0.00 71 1011.5
20260506100803 55 338 1.7 6.1 0.00 0.00 0.00 72 1011.5
20260506100704 55 332 1.7 6.1 0.00 0.00 0.00 72 1011.4
20260506100603 55 325 2.6 6.1 0.00 0.00 0.00 72 1011.4
20260506100503 55 323 2.6 6.1 0.00 0.00 0.00 73 1011.5
20260506100403 55 318 2.6 6.1 0.00 0.00 0.00 72 1011.4
20260506100303 55 319 2.6 6.1 0.00 0.00 0.00 72 1011.4
20260506100203 54 313 2.6 7.8 0.00 0.00 0.00 73 1011.3
20260506100104 54 310 1.7 7.8 0.00 0.00 0.00 73 1011.4
20260506100013 54 310 1.7 7.8 0.00 0.00 0.00 73 1011.4
20260506100003 54 305 1.7 7.8 0.00 0.00 0.00 73 1011.4
20260506095903 54 306 2.6 7.8 0.00 0.00 0.00 73 1011.2
20260506095704 54 304 2.6 7.8 0.00 0.00 0.00 73 1011.3
20260506095603 54 307 2.6 7.8 0.00 0.00 0.00 73 1011.3
20260506095503 54 304 1.7 7.8 0.00 0.00 0.00 73 1011.3
20260506095404 54 305 1.7 7.8 0.00 0.00 0.00 73 1011.3
20260506095305 54 301 1.7 7.8 0.00 0.00 0.00 73 1011.2
20260506095203 54 306 1.7 7.8 0.00 0.00 0.00 73 1011.3
20260506095115 54 306 1.7 7.8 0.00 0.00 0.00 73 1011.3
20260506095103 54 315 2.6 7.8 0.00 0.00 0.00 74 1011.3
20260506095014 54 315 2.6 7.8 0.00 0.00 0.00 74 1011.3
20260506095004 54 312 2.6 6.1 0.00 0.00 0.00 74 1011.2
20260506094703 54 317 2.6 8.7 0.00 0.00 0.00 75 1011.3
20260506094603 53 328 2.6 8.7 0.00 0.00 0.00 75 1011.3
20260506094503 53 326 2.6 8.7 0.00 0.00 0.00 76 1011.3
20260506094404 53 325 2.6 8.7 0.00 0.00 0.00 76 1011.4
20260506094303 53 325 2.6 8.7 0.00 0.00 0.00 77 1011.4
20260506094203 53 319 2.6 8.7 0.00 0.00 0.00 77 1011.3
20260506094103 53 312 2.6 8.7 0.00 0.00 0.00 77 1011.5
20260506094015 53 312 2.6 8.7 0.00 0.00 0.00 77 1011.5
20260506094003 53 310 2.6 8.7 0.00 0.00 0.00 78 1011.4
20260506093913 53 310 2.6 8.7 0.00 0.00 0.00 78 1011.4
20260506093904 52 312 2.6 8.7 0.00 0.00 0.00 78 1011.3
20260506093604 52 298 1.7 8.7 0.00 0.00 0.00 78 1011.3
20260506093503 52 297 1.7 7.0 0.00 0.00 0.00 77 1011.3
20260506093404 52 301 1.7 7.0 0.00 0.00 0.00 78 1011.2
20260506093303 52 302 1.7 7.0 0.00 0.00 0.00 78 1011.3
20260506093204 52 308 1.7 7.0 0.00 0.00 0.00 78 1011.4
20260506093103 52 310 1.7 7.0 0.00 0.00 0.00 78 1011.3
20260506093003 52 311 1.7 7.0 0.00 0.00 0.00 78 1011.3
20260506092914 52 311 1.7 7.0 0.00 0.00 0.00 78 1011.3
20260506092904 52 315 1.7 7.0 0.00 0.00 0.00 78 1011.2
20260506092803 52 312 1.7 7.0 0.00 0.00 0.00 78 1011.3
20260506092615 52 317 1.7 7.0 0.00 0.00 0.00 78 1011.4
20260506092603 52 325 1.7 7.0 0.00 0.00 0.00 78 1011.3
20260506092504 52 337 1.7 7.0 0.00 0.00 0.00 78 1011.3
20260506092305 52 344 2.6 7.8 0.00 0.00 0.00 78 1011.2
20260506092203 52 335 2.6 7.8 0.00 0.00 0.00 78 1011.2
20260506092103 52 349 2.6 7.8 0.00 0.00 0.00 79 1011.3
20260506092017 52 349 2.6 7.8 0.00 0.00 0.00 79 1011.3
20260506092004 52 360 2.6 7.8 0.00 0.00 0.00 79 1011.4
20260506091903 52 360 2.6 7.8 0.00 0.00 0.00 79 1011.3
20260506091703 52 356 2.6 7.8 0.00 0.00 0.00 79 1011.2
20260506091603 52 2 2.6 7.8 0.00 0.00 0.00 80 1011.4
20260506091504 52 348 2.6 8.7 0.00 0.00 0.00 80 1011.1
20260506091403 52 343 2.6 8.7 0.00 0.00 0.00 80 1011.3
20260506091303 52 341 2.6 8.7 0.00 0.00 0.00 80 1011.2
20260506091203 51 341 2.6 8.7 0.00 0.00 0.00 80 1011.4
20260506091103 51 333 2.6 8.7 0.00 0.00 0.00 79 1011.3
20260506091003 51 325 2.6 8.7 0.00 0.00 0.00 79 1011.1
20260506090903 51 323 3.5 8.7 0.00 0.00 0.00 80 1011.4
20260506090803 51 321 2.6 8.7 0.00 0.00 0.00 79 1011.2
20260506090704 51 314 2.6 8.7 0.00 0.00 0.00 79 1011.1
20260506090603 51 308 2.6 8.7 0.00 0.00 0.00 79 1011.3
20260506090503 51 310 2.6 8.7 0.00 0.00 0.00 79 1011.2
20260506090414 51 310 2.6 8.7 0.00 0.00 0.00 79 1011.2
20260506090404 51 319 2.6 8.7 0.00 0.00 0.00 79 1011.3
20260506090304 51 313 2.6 8.7 0.00 0.00 0.00 80 1011.2
20260506090003 51 325 2.6 8.7 0.00 0.00 0.00 80 1011.1
20260506085912 51 325 2.6 8.7 0.00 0.00 0.00 80 1011.1
20260506085903 51 319 2.6 8.7 0.00 0.00 0.00 80 1011.1
20260506085804 51 327 2.6 8.7 0.00 0.00 0.00 80 1011.0
20260506085613 51 334 2.6 7.0 0.00 0.00 0.00 80 1011.0
20260506085603 51 335 2.6 7.0 0.00 0.00 0.00 80 1011.0
20260506085504 51 330 2.6 6.1 0.00 0.00 0.00 80 1011.3
20260506085314 51 326 2.6 6.1 0.00 0.00 0.00 80 1011.2
20260506085306 51 325 2.6 6.1 0.00 0.00 0.00 80 1011.2
20260506085217 51 325 2.6 6.1 0.00 0.00 0.00 80 1011.2
20260506085204 51 324 2.6 6.1 0.00 0.00 0.00 80 1011.0
20260506084918 51 314 2.6 6.1 0.00 0.00 0.00 80 1011.3
20260506084903 51 310 2.6 8.7 0.00 0.00 0.00 80 1011.2
20260506084804 51 302 2.6 8.7 0.00 0.00 0.00 80 1011.3
20260506084604 51 303 2.6 8.7 0.00 0.00 0.00 80 1010.9
20260506084503 51 306 1.7 8.7 0.00 0.00 0.00 80 1011.1
20260506084403 51 300 2.6 8.7 0.00 0.00 0.00 80 1011.0
20260506084304 51 298 2.6 8.7 0.00 0.00 0.00 80 1011.0
20260506084204 51 295 2.6 8.7 0.00 0.00 0.00 80 1010.9
20260506084103 51 301 2.6 8.7 0.00 0.00 0.00 80 1011.0
20260506084003 51 299 2.6 8.7 0.00 0.00 0.00 80 1011.0
20260506083903 51 306 1.7 8.7 0.00 0.00 0.00 80 1011.1
20260506083818 51 306 1.7 8.7 0.00 0.00 0.00 80 1011.1
20260506083803 51 314 2.6 8.7 0.00 0.00 0.00 80 1011.2
20260506083703 51 319 2.6 7.8 0.00 0.00 0.00 81 1011.2
20260506083504 51 317 1.7 7.0 0.00 0.00 0.00 81 1011.0
20260506083403 51 323 2.6 7.0 0.00 0.00 0.00 81 1011.1
20260506083303 51 323 2.6 7.0 0.00 0.00 0.00 81 1011.0
20260506083203 51 335 2.6 9.6 0.00 0.00 0.00 81 1011.0
20260506083103 51 339 2.6 9.6 0.00 0.00 0.00 81 1011.1
20260506083004 51 336 2.6 9.6 0.00 0.00 0.00 81 1011.0
20260506082916 51 336 2.6 9.6 0.00 0.00 0.00 81 1011.0
20260506082903 51 341 2.6 9.6 0.00 0.00 0.00 81 1011.1
20260506082804 51 338 2.6 9.6 0.00 0.00 0.00 81 1011.0
20260506082604 51 339 2.6 9.6 0.00 0.00 0.00 81 1011.2
20260506082503 51 340 2.6 9.6 0.00 0.00 0.00 81 1011.1
20260506082403 51 337 2.6 9.6 0.00 0.00 0.00 81 1011.0
20260506082305 51 345 2.6 9.6 0.00 0.00 0.00 81 1011.3
20260506082203 51 329 2.6 9.6 0.00 0.00 0.00 81 1010.9
20260506082103 51 323 2.6 9.6 0.00 0.00 0.00 81 1010.9
20260506082003 51 328 2.6 7.8 0.00 0.00 0.00 81 1010.9
20260506081916 51 328 2.6 7.8 0.00 0.00 0.00 81 1010.9
20260506081904 51 322 2.6 7.8 0.00 0.00 0.00 81 1010.9
20260506081814 51 322 2.6 7.8 0.00 0.00 0.00 81 1010.9
20260506081803 51 324 2.6 7.8 0.00 0.00 0.00 81 1010.8
20260506081503 51 325 2.6 7.8 0.00 0.00 0.00 81 1011.1
20260506081414 51 325 2.6 7.8 0.00 0.00 0.00 81 1011.1
20260506081404 51 327 2.6 7.8 0.00 0.00 0.00 81 1011.1
20260506081303 51 325 2.6 7.8 0.00 0.00 0.00 81 1011.0
20260506081103 51 325 2.6 8.7 0.00 0.00 0.00 81 1011.0
20260506081004 51 327 2.6 8.7 0.00 0.00 0.00 81 1011.1
20260506080903 51 328 2.6 8.7 0.00 0.00 0.00 81 1010.9
20260506080804 51 330 2.6 8.7 0.00 0.00 0.00 81 1010.9
20260506080703 51 321 2.6 8.7 0.00 0.00 0.00 81 1010.9
20260506080604 51 318 2.6 8.7 0.00 0.00 0.00 81 1011.0
20260506080503 51 308 2.6 8.7 0.00 0.00 0.00 81 1011.1
20260506080415 51 308 2.6 8.7 0.00 0.00 0.00 81 1011.1
20260506080403 51 308 2.6 8.7 0.00 0.00 0.00 81 1010.9
20260506080313 51 308 2.6 8.7 0.00 0.00 0.00 81 1010.9
20260506080303 51 310 1.7 8.7 0.00 0.00 0.00 81 1010.8
20260506080217 51 310 1.7 8.7 0.00 0.00 0.00 81 1010.8
20260506073504 50 309 2.6 8.7 0.00 0.00 0.00 82 1010.9
20260506073404 50 313 2.6 8.7 0.00 0.00 0.00 82 1011.0
20260506073303 50 312 2.6 8.7 0.00 0.00 0.00 82 1010.7
20260506073203 50 308 2.6 8.7 0.00 0.00 0.00 82 1010.7
20260506073104 50 314 2.6 8.7 0.00 0.00 0.00 82 1010.8
20260506073003 50 317 2.6 7.8 0.00 0.00 0.00 82 1010.7
20260506072904 50 322 2.6 7.8 0.00 0.00 0.00 82 1011.0
20260506072803 50 327 2.6 7.8 0.00 0.00 0.00 81 1010.7
20260506072704 50 332 2.6 7.8 0.00 0.00 0.00 81 1010.8
20260506072603 51 326 2.6 7.8 0.00 0.00 0.00 81 1010.7
20260506072504 51 329 2.6 6.1 0.00 0.00 0.00 82 1010.9
20260506072404 51 332 2.6 7.8 0.00 0.00 0.00 82 1011.0
20260506072305 51 336 2.6 7.8 0.00 0.00 0.00 82 1010.8
20260506072203 51 338 2.6 8.7 0.00 0.00 0.00 81 1010.7
20260506072103 51 342 2.6 8.7 0.00 0.00 0.00 81 1010.5
20260506072013 51 342 2.6 8.7 0.00 0.00 0.00 81 1010.5
20260506072003 51 341 2.6 8.7 0.00 0.00 0.00 82 1010.8
20260506071903 51 343 2.6 8.7 0.00 0.00 0.00 81 1010.6
20260506071714 51 345 2.6 8.7 0.00 0.00 0.00 81 1010.8
20260506071703 51 344 2.6 8.7 0.00 0.00 0.00 81 1010.6
20260506071612 51 344 2.6 8.7 0.00 0.00 0.00 81 1010.6
20260506071604 51 348 2.6 8.7 0.00 0.00 0.00 81 1010.7
20260506071516 51 348 2.6 8.7 0.00 0.00 0.00 81 1010.7
20260506071203 51 321 2.6 8.7 0.00 0.00 0.00 81 1010.6
20260506071104 50 315 2.6 8.7 0.00 0.00 0.00 81 1010.6
20260506071003 51 312 2.6 7.8 0.00 0.00 0.00 81 1010.5
20260506070904 51 306 2.6 7.8 0.00 0.00 0.00 81 1010.5
20260506070803 50 303 2.6 7.8 0.00 0.00 0.00 81 1010.6
20260506070715 50 303 2.6 7.8 0.00 0.00 0.00 81 1010.6
20260506070703 50 305 2.6 7.8 0.00 0.00 0.00 81 1010.4
20260506070604 50 308 2.6 7.8 0.00 0.00 0.00 81 1010.5
20260506070404 51 307 2.6 7.8 0.00 0.00 0.00 81 1010.6
20260506070304 51 306 2.6 7.8 0.00 0.00 0.00 82 1010.7
20260506070208 51 306 2.6 7.8 0.00 0.00 0.00 82 1010.7
20260506070103 50 309 2.6 7.8 0.00 0.00 0.00 81 1010.6
20260506062503 49 293 2.6 7.8 0.00 0.00 0.00 83 1010.5
20260506062414 49 293 2.6 7.8 0.00 0.00 0.00 83 1010.5
20260506062403 49 297 2.6 7.8 0.00 0.00 0.00 83 1010.6
20260506062305 49 303 2.6 7.8 0.00 0.00 0.00 83 1010.5
20260506062103 49 313 2.6 8.7 0.00 0.00 0.00 83 1010.4
20260506062014 49 313 2.6 8.7 0.00 0.00 0.00 83 1010.4
20260506062004 49 313 2.6 8.7 0.00 0.00 0.00 83 1010.3
20260506061903 49 314 2.6 8.7 0.00 0.00 0.00 83 1010.3
20260506061703 49 331 2.6 8.7 0.00 0.00 0.00 83 1010.5
20260506061613 49 331 2.6 8.7 0.00 0.00 0.00 83 1010.5
20260506061603 49 341 2.6 8.7 0.00 0.00 0.00 83 1010.4
20260506061517 49 341 2.6 8.7 0.00 0.00 0.00 83 1010.4
20260506061503 49 348 2.6 8.7 0.00 0.00 0.00 83 1010.5
20260506061314 49 353 2.6 8.7 0.00 0.00 0.00 83 1010.5
20260506061203 49 339 2.6 8.7 0.00 0.00 0.00 83 1010.4
20260506061003 49 345 2.6 6.1 0.00 0.00 0.00 83 1010.4
20260506060903 49 333 2.6 6.1 0.00 0.00 0.00 83 1010.3
20260506060803 49 328 2.6 7.8 0.00 0.00 0.00 83 1010.3
20260506060703 49 336 2.6 7.8 0.00 0.00 0.00 83 1010.3
20260506060614 49 336 2.6 7.8 0.00 0.00 0.00 83 1010.3
20260506060604 49 321 2.6 7.8 0.00 0.00 0.00 83 1010.2
20260506060503 49 306 2.6 7.8 0.00 0.00 0.00 83 1010.5
20260506060303 49 308 2.6 7.8 0.00 0.00 0.00 83 1010.3
20260506060213 49 308 2.6 7.8 0.00 0.00 0.00 83 1010.3
20260506060203 49 309 2.6 7.8 0.00 0.00 0.00 84 1010.3
20260506051304 48 314 2.6 8.7 0.00 0.00 0.00 83 1010.4
20260506051203 48 345 2.6 8.7 0.00 0.00 0.00 83 1010.4
20260506051104 48 16 2.6 8.7 0.00 0.00 0.00 83 1010.4
20260506051003 48 173 2.6 8.7 0.00 0.00 0.00 83 1010.4
20260506050903 48 318 2.6 8.7 0.00 0.00 0.00 83 1010.3
20260506050804 48 344 2.6 8.7 0.00 0.00 0.00 83 1010.4
20260506050703 48 348 2.6 7.8 0.00 0.00 0.00 83 1010.7
20260506050603 48 353 2.6 7.8 0.00 0.00 0.00 83 1010.4
20260506050503 48 327 1.7 7.8 0.00 0.00 0.00 83 1010.4
20260506050417 48 327 1.7 7.8 0.00 0.00 0.00 83 1010.4
20260506050403 48 322 1.7 7.8 0.00 0.00 0.00 83 1010.4
20260506050315 48 322 1.7 7.8 0.00 0.00 0.00 83 1010.4
20260506050303 48 316 1.7 7.8 0.00 0.00 0.00 83 1010.4
20260506050214 48 316 1.7 7.8 0.00 0.00 0.00 83 1010.4
20260506045004 48 331 2.6 9.6 0.00 0.00 0.00 82 1010.4
20260506044904 48 339 2.6 9.6 0.00 0.00 0.00 82 1010.4
20260506044804 48 333 2.6 9.6 0.00 0.00 0.00 82 1010.6
20260506044704 48 345 2.6 9.6 0.00 0.00 0.00 82 1010.6
20260506044603 48 333 1.7 9.6 0.00 0.00 0.00 81 1010.4
20260506044503 48 330 1.7 9.6 0.00 0.00 0.00 82 1010.3
20260506044403 48 343 2.6 9.6 0.00 0.00 0.00 81 1010.4
20260506044304 48 332 2.6 9.6 0.00 0.00 0.00 81 1010.2
20260506044216 48 332 2.6 9.6 0.00 0.00 0.00 81 1010.2
20260506044203 48 331 2.6 9.6 0.00 0.00 0.00 81 1010.5
20260506044103 49 328 2.6 9.6 0.00 0.00 0.00 81 1010.2
20260506043904 49 318 2.6 9.6 0.00 0.00 0.00 81 1010.5
20260506043803 49 331 2.6 7.0 0.00 0.00 0.00 81 1010.2
20260506043703 49 323 2.6 7.0 0.00 0.00 0.00 81 1010.2
20260506043603 49 331 2.6 7.0 0.00 0.00 0.00 82 1010.3
20260506043504 49 317 2.6 7.8 0.00 0.00 0.00 81 1010.4
20260506043403 49 307 2.6 7.8 0.00 0.00 0.00 81 1010.4
20260506043303 49 313 2.6 7.8 0.00 0.00 0.00 81 1010.3
20260506043203 49 313 2.6 7.8 0.00 0.00 0.00 81 1010.3
20260506043103 49 306 2.6 7.8 0.00 0.00 0.00 82 1010.4
20260506043003 49 317 2.6 7.8 0.00 0.00 0.00 81 1010.3
20260506042917 49 317 2.6 7.8 0.00 0.00 0.00 81 1010.3
20260506042904 49 324 2.6 7.8 0.00 0.00 0.00 81 1010.3
20260506042803 49 322 2.6 7.8 0.00 0.00 0.00 82 1010.5
20260506042603 49 314 2.6 7.8 0.00 0.00 0.00 82 1010.4
20260506042517 49 314 2.6 7.8 0.00 0.00 0.00 82 1010.4
20260506042504 49 328 2.6 6.1 0.00 0.00 0.00 82 1010.5
20260506042403 49 328 2.6 6.1 0.00 0.00 0.00 82 1010.6
20260506042218 49 334 2.6 6.1 0.00 0.00 0.00 82 1010.4
20260506042203 49 335 2.6 6.1 0.00 0.00 0.00 82 1010.5
20260506042103 49 336 2.6 6.1 0.00 0.00 0.00 82 1010.5
20260506041913 49 332 2.6 6.1 0.00 0.00 0.00 82 1010.4
20260506041903 49 328 2.6 7.0 0.00 0.00 0.00 82 1010.3
20260506041803 49 325 2.6 7.0 0.00 0.00 0.00 82 1010.5
20260506041604 49 347 1.7 8.7 0.00 0.00 0.00 82 1010.5
20260506041504 49 347 1.7 8.7 0.00 0.00 0.00 82 1010.3
20260506041403 49 347 2.6 8.7 0.00 0.00 0.00 82 1010.4
20260506041304 49 341 1.7 8.7 0.00 0.00 0.00 82 1010.5
20260506041204 49 337 1.7 8.7 0.00 0.00 0.00 82 1010.6
20260506041104 49 341 1.7 8.7 0.00 0.00 0.00 82 1010.4
20260506041004 49 346 2.6 8.7 0.00 0.00 0.00 82 1010.4
20260506040914 49 346 2.6 8.7 0.00 0.00 0.00 82 1010.4
20260506040903 49 1 1.7 8.7 0.00 0.00 0.00 83 1010.5
20260506040804 49 5 1.7 8.7 0.00 0.00 0.00 83 1010.5
20260506040716 49 5 1.7 8.7 0.00 0.00 0.00 83 1010.5
20260506040603 49 326 2.6 7.0 0.00 0.00 0.00 83 1010.4
20260506040514 49 326 2.6 7.0 0.00 0.00 0.00 83 1010.4
20260506040404 49 318 1.7 7.0 0.00 0.00 0.00 83 1010.5
20260506040203 49 324 1.7 7.0 0.00 0.00 0.00 83 1010.3
20260506040003 49 336 2.6 7.0 0.00 0.00 0.00 83 1010.6
20260506035915 49 336 2.6 7.0 0.00 0.00 0.00 83 1010.6
20260506035903 49 321 2.6 7.8 0.00 0.00 0.00 83 1010.5
20260506035803 49 309 2.6 7.8 0.00 0.00 0.00 83 1010.5
20260506035616 49 319 2.6 7.8 0.00 0.00 0.00 83 1010.6
20260506035604 49 325 2.6 7.8 0.00 0.00 0.00 83 1010.7
20260506035503 49 324 2.6 7.8 0.00 0.00 0.00 83 1010.7
20260506035413 49 324 2.6 7.8 0.00 0.00 0.00 83 1010.7
20260506035305 49 314 2.6 7.8 0.00 0.00 0.00 83 1010.5
20260506035104 49 307 2.6 7.8 0.00 0.00 0.00 83 1010.4
20260506035004 49 299 2.6 7.8 0.00 0.00 0.00 83 1010.5
20260506034903 49 309 2.6 7.8 0.00 0.00 0.00 83 1010.6
20260506034815 49 309 2.6 7.8 0.00 0.00 0.00 83 1010.6
20260506034804 49 317 2.6 7.8 0.00 0.00 0.00 83 1010.4
20260506034703 49 316 1.7 7.0 0.00 0.00 0.00 83 1010.5
20260506034503 49 325 1.7 7.0 0.00 0.00 0.00 84 1010.4
20260506034403 49 337 1.7 7.0 0.00 0.00 0.00 84 1010.5
20260506034313 49 337 1.7 7.0 0.00 0.00 0.00 84 1010.5
20260506034303 49 343 1.7 7.0 0.00 0.00 0.00 84 1010.4
20260506034203 49 346 1.7 7.0 0.00 0.00 0.00 84 1010.4
20260506034003 49 1 1.7 7.8 0.00 0.00 0.00 84 1010.6
20260506033912 49 1 1.7 7.8 0.00 0.00 0.00 84 1010.6
20260506033903 49 359 1.7 7.8 0.00 0.00 0.00 84 1010.6
20260506033803 49 359 1.7 7.8 0.00 0.00 0.00 84 1010.6
20260506033714 49 359 1.7 7.8 0.00 0.00 0.00 84 1010.6
20260506033604 49 358 1.7 7.8 0.00 0.00 0.00 84 1010.7
20260506033403 49 338 1.7 7.8 0.00 0.00 0.00 84 1010.7
20260506033303 49 334 1.7 7.8 0.00 0.00 0.00 84 1010.5
20260506033204 49 324 1.7 7.8 0.00 0.00 0.00 84 1010.6
20260506033116 49 324 1.7 7.8 0.00 0.00 0.00 84 1010.6
20260506033103 49 322 1.7 7.8 0.00 0.00 0.00 84 1010.6
20260506033004 49 317 1.7 7.8 0.00 0.00 0.00 84 1010.6
20260506032803 49 321 1.7 5.2 0.00 0.00 0.00 84 1010.7
20260506032704 49 323 1.7 5.2 0.00 0.00 0.00 84 1010.9
20260506032603 49 327 1.7 5.2 0.00 0.00 0.00 84 1010.8
20260506032503 49 322 1.7 5.2 0.00 0.00 0.00 84 1010.5
20260506032404 49 313 1.7 5.2 0.00 0.00 0.00 84 1011.0
20260506032305 49 320 1.7 5.2 0.00 0.00 0.00 84 1010.8
20260506032204 49 323 1.7 5.2 0.00 0.00 0.00 84 1010.7
20260506032103 49 320 1.7 5.2 0.00 0.00 0.00 84 1010.8
20260506032015 49 320 1.7 5.2 0.00 0.00 0.00 84 1010.8
20260506032003 49 319 1.7 5.2 0.00 0.00 0.00 84 1010.7
20260506031914 49 319 1.7 5.2 0.00 0.00 0.00 84 1010.7
20260506031903 49 314 1.7 5.2 0.00 0.00 0.00 85 1010.8
20260506031716 49 312 1.7 5.2 0.00 0.00 0.00 85 1010.7
20260506031603 49 319 1.7 5.2 0.00 0.00 0.00 84 1010.6
20260506031404 49 320 1.7 6.1 0.00 0.00 0.00 85 1010.8
20260506031316 49 320 1.7 6.1 0.00 0.00 0.00 85 1010.8
20260506031304 49 317 1.7 6.1 0.00 0.00 0.00 85 1010.8
20260506031204 49 321 1.7 6.1 0.00 0.00 0.00 85 1010.7
20260506031016 49 323 1.7 6.1 0.00 0.00 0.00 85 1010.7
20260506031003 49 327 1.7 6.1 0.00 0.00 0.00 85 1010.8
20260506030904 49 326 1.7 6.1 0.00 0.00 0.00 85 1010.7
20260506030703 49 327 1.7 6.1 0.00 0.00 0.00 85 1010.8
20260506030616 49 327 1.7 6.1 0.00 0.00 0.00 85 1010.8
20260506030603 49 333 1.7 6.1 0.00 0.00 0.00 85 1011.0
20260506030503 49 337 1.7 6.1 0.00 0.00 0.00 85 1010.8
20260506030304 49 338 1.7 6.1 0.00 0.00 0.00 85 1010.9
20260506030203 49 331 1.7 6.1 0.00 0.00 0.00 85 1010.7
20260506030104 49 328 1.7 6.1 0.00 0.00 0.00 85 1010.9
20260506030003 49 323 1.7 6.1 0.00 0.00 0.00 85 1010.9
20260506025904 49 320 1.7 6.1 0.00 0.00 0.00 85 1010.9
20260506025804 49 309 1.7 6.1 0.00 0.00 0.00 85 1010.8
20260506025703 49 300 1.7 6.1 0.00 0.00 0.00 85 1010.9
20260506025603 49 295 1.7 6.1 0.00 0.00 0.00 85 1011.1
20260506025503 49 292 1.7 7.0 0.00 0.00 0.00 85 1010.8
20260506025414 49 292 1.7 7.0 0.00 0.00 0.00 85 1010.8
20260506025403 49 292 1.7 7.0 0.00 0.00 0.00 85 1011.0
20260506025305 50 291 1.7 8.7 0.00 0.00 0.00 85 1010.9
20260506025106 49 292 2.6 8.7 0.00 0.00 0.00 85 1011.1
20260506025003 49 307 2.6 8.7 0.00 0.00 0.00 85 1011.0
20260506024803 50 316 2.6 8.7 0.00 0.00 0.00 85 1011.1
20260506024704 50 324 2.6 8.7 0.00 0.00 0.00 85 1010.8
20260506024603 50 329 2.6 8.7 0.00 0.00 0.00 85 1010.9
20260506024504 50 332 2.6 8.7 0.00 0.00 0.00 85 1010.6
20260506024415 50 332 2.6 8.7 0.00 0.00 0.00 85 1010.6
20260506024403 50 334 2.6 8.7 0.00 0.00 0.00 85 1011.1
20260506024303 50 339 2.6 8.7 0.00 0.00 0.00 85 1010.8
20260506024116 50 343 2.6 8.7 0.00 0.00 0.00 85 1010.8
20260506024103 50 337 2.6 8.7 0.00 0.00 0.00 85 1011.0
20260506024004 50 333 1.7 7.0 0.00 0.00 0.00 85 1010.9
20260506023913 50 333 1.7 7.0 0.00 0.00 0.00 85 1010.9
20260506023803 50 333 1.7 6.1 0.00 0.00 0.00 85 1010.9
20260506023715 50 333 1.7 6.1 0.00 0.00 0.00 85 1010.9
20260506023603 50 329 1.7 6.1 0.00 0.00 0.00 85 1010.9
20260506023403 50 341 1.7 6.1 0.00 0.00 0.00 85 1010.9
20260506023303 50 339 1.7 6.1 0.00 0.00 0.00 85 1011.0
20260506023204 50 330 1.7 6.1 0.00 0.00 0.00 85 1010.8
20260506023104 50 327 1.7 6.1 0.00 0.00 0.00 85 1010.8
20260506023003 50 334 1.7 6.1 0.00 0.00 0.00 85 1010.8
20260506022904 50 347 1.7 6.1 0.00 0.00 0.00 85 1011.1
20260506022804 50 353 1.7 6.1 0.00 0.00 0.00 85 1011.0
20260506022703 50 358 1.7 6.1 0.00 0.00 0.00 85 1010.9
20260506022604 50 3 1.7 6.1 0.00 0.00 0.00 85 1011.0
20260506022503 50 9 1.7 6.1 0.00 0.00 0.00 85 1011.0
20260506022403 50 344 1.7 6.1 0.00 0.00 0.00 85 1010.9
20260506022305 50 359 1.7 7.8 0.00 0.00 0.00 85 1011.0
20260506022203 50 8 0.9 7.8 0.00 0.00 0.00 84 1011.0
20260506022103 50 352 1.7 7.8 0.00 0.00 0.00 84 1011.1
20260506022004 50 346 1.7 7.8 0.00 0.00 0.00 84 1011.1
20260506021915 50 346 1.7 7.8 0.00 0.00 0.00 84 1011.1
20260506021904 50 347 1.7 7.8 0.00 0.00 0.00 84 1010.9
20260506021803 50 335 1.7 7.8 0.00 0.00 0.00 84 1011.0
20260506021604 50 337 1.7 7.8 0.00 0.00 0.00 85 1010.9
20260506021503 50 334 2.6 7.8 0.00 0.00 0.00 84 1011.0
20260506021403 50 338 2.6 7.8 0.00 0.00 0.00 84 1011.1
20260506021303 50 336 2.6 7.8 0.00 0.00 0.00 84 1011.0
20260506021203 50 333 2.6 7.8 0.00 0.00 0.00 84 1010.9
20260506021103 50 349 2.6 7.8 0.00 0.00 0.00 84 1010.9
20260506021003 50 358 1.7 7.8 0.00 0.00 0.00 84 1010.7
20260506020916 50 358 1.7 7.8 0.00 0.00 0.00 84 1010.7
20260506020903 50 356 2.6 7.8 0.00 0.00 0.00 84 1011.0
20260506020804 50 2 1.7 7.8 0.00 0.00 0.00 84 1010.9
20260506020603 50 359 1.7 7.8 0.00 0.00 0.00 83 1011.0
20260506020515 50 359 1.7 7.8 0.00 0.00 0.00 83 1011.0
20260506020503 50 360 1.7 7.8 0.00 0.00 0.00 83 1010.9
20260506020403 50 360 1.7 7.8 0.00 0.00 0.00 83 1010.8
20260506020203 51 356 1.7 7.8 0.00 0.00 0.00 83 1011.1
20260506020103 51 347 1.7 7.8 0.00 0.00 0.00 83 1010.7
20260506020004 51 335 1.7 6.1 0.00 0.00 0.00 83 1011.1
20260506015903 51 342 1.7 6.1 0.00 0.00 0.00 83 1011.0
20260506015815 51 342 1.7 6.1 0.00 0.00 0.00 83 1011.0
20260506015803 51 321 1.7 6.1 0.00 0.00 0.00 83 1011.1
20260506015704 51 357 0.9 6.1 0.00 0.00 0.00 83 1011.1
20260506015503 51 342 0.9 6.1 0.00 0.00 0.00 83 1011.0
20260506015414 51 342 0.9 6.1 0.00 0.00 0.00 83 1011.0
20260506015404 50 5 0.9 6.1 0.00 0.00 0.00 82 1011.0
20260506015313 50 5 0.9 6.1 0.00 0.00 0.00 82 1011.0
20260506015306 50 36 1.7 6.1 0.00 0.00 0.00 82 1011.0
20260506015003 50 5 1.7 7.8 0.00 0.00 0.00 82 1011.0
20260506014903 51 357 1.7 7.8 0.00 0.00 0.00 82 1011.2
20260506014804 50 359 1.7 7.8 0.00 0.00 0.00 82 1010.9
20260506014704 50 3 1.7 7.8 0.00 0.00 0.00 82 1011.0
20260506014603 51 348 1.7 7.8 0.00 0.00 0.00 82 1011.1
20260506014504 51 359 1.7 7.8 0.00 0.00 0.00 82 1011.0
20260506014403 51 349 1.7 7.8 0.00 0.00 0.00 82 1010.9
20260506014304 51 344 1.7 7.8 0.00 0.00 0.00 82 1011.2
20260506014204 50 334 1.7 7.8 0.00 0.00 0.00 82 1011.0
20260506014104 51 330 1.7 7.8 0.00 0.00 0.00 82 1011.1
20260506014003 51 319 1.7 7.8 0.00 0.00 0.00 82 1011.0
20260506013904 51 314 1.7 5.2 0.00 0.00 0.00 82 1011.1
20260506013817 51 314 1.7 5.2 0.00 0.00 0.00 82 1011.1
20260506013803 50 284 1.7 5.2 0.00 0.00 0.00 82 1011.1
20260506013716 50 284 1.7 5.2 0.00 0.00 0.00 82 1011.1
20260506013703 50 310 1.7 5.2 0.00 0.00 0.00 82 1010.8
20260506013513 50 317 1.7 6.1 0.00 0.00 0.00 82 1011.0
20260506013403 51 18 1.7 10.4 0.00 0.00 0.00 82 1011.0
20260506013204 51 6 1.7 10.4 0.00 0.00 0.00 82 1011.1
20260506013103 51 11 1.7 10.4 0.00 0.00 0.00 82 1010.9
20260506013016 51 11 1.7 10.4 0.00 0.00 0.00 82 1010.9
20260506013003 51 9 1.7 10.4 0.00 0.00 0.00 82 1011.3
20260506012903 51 10 1.7 10.4 0.00 0.00 0.00 82 1010.9
20260506012703 51 28 1.7 10.4 0.00 0.00 0.00 82 1011.1
20260506012603 51 40 1.7 10.4 0.00 0.00 0.00 82 1011.0
20260506012503 51 45 1.7 10.4 0.00 0.00 0.00 82 1011.1
20260506012403 51 43 1.7 10.4 0.00 0.00 0.00 82 1010.9
20260506012307 51 21 1.7 10.4 0.00 0.00 0.00 82 1011.0
20260506012215 51 21 1.7 10.4 0.00 0.00 0.00 82 1011.0
20260506012203 51 37 1.7 7.8 0.00 0.00 0.00 82 1011.1
20260506012113 51 37 1.7 7.8 0.00 0.00 0.00 82 1011.1
20260506012103 51 15 1.7 7.8 0.00 0.00 0.00 82 1011.1
20260506011803 51 357 2.6 7.8 0.00 0.00 0.00 82 1011.1
20260506011703 51 347 2.6 7.8 0.00 0.00 0.00 82 1011.1
20260506011603 51 345 2.6 7.8 0.00 0.00 0.00 82 1011.1
20260506011503 51 339 2.6 7.8 0.00 0.00 0.00 82 1010.8
20260506011403 51 335 2.6 7.8 0.00 0.00 0.00 82 1011.0
20260506011303 51 338 1.7 7.8 0.00 0.00 0.00 82 1010.9
20260506011204 51 332 1.7 7.8 0.00 0.00 0.00 82 1011.2
20260506011114 51 332 1.7 7.8 0.00 0.00 0.00 82 1011.2
20260506011103 51 328 1.7 7.8 0.00 0.00 0.00 82 1011.2
20260506011004 51 326 1.7 7.8 0.00 0.00 0.00 82 1011.2
20260506010804 51 327 1.7 7.0 0.00 0.00 0.00 82 1011.1
20260506010713 51 327 1.7 7.0 0.00 0.00 0.00 82 1011.1
20260506010703 51 340 1.7 7.0 0.00 0.00 0.00 82 1011.0
20260506010617 51 340 1.7 7.0 0.00 0.00 0.00 82 1011.0
20260506010603 51 332 1.7 7.0 0.00 0.00 0.00 81 1011.1
20260506010303 51 331 1.7 6.1 0.00 0.00 0.00 81 1011.3
20260506010203 51 336 1.7 6.1 0.00 0.00 0.00 82 1011.0
20260506010103 51 21 1.7 6.1 0.00 0.00 0.00 81 1011.2
20260506010004 51 26 1.7 8.7 0.00 0.00 0.00 81 1011.1
20260506005903 51 337 1.7 8.7 0.00 0.00 0.00 81 1011.2
20260506005804 51 318 1.7 8.7 0.00 0.00 0.00 81 1011.3
20260506005714 51 318 1.7 8.7 0.00 0.00 0.00 81 1011.3
20260506005703 51 312 1.7 8.7 0.00 0.00 0.00 81 1011.1
20260506005613 51 312 1.7 8.7 0.00 0.00 0.00 81 1011.1
20260506005603 51 330 1.7 8.7 0.00 0.00 0.00 81 1011.3
20260506005305 51 358 1.7 8.7 0.00 0.00 0.00 81 1011.3
20260506005217 51 358 1.7 8.7 0.00 0.00 0.00 81 1011.3
20260506005203 51 41 1.7 8.7 0.00 0.00 0.00 81 1011.2
20260506005116 51 41 1.7 8.7 0.00 0.00 0.00 81 1011.2
20260506005103 51 350 1.7 8.7 0.00 0.00 0.00 81 1011.2
20260506004803 51 40 1.7 6.1 0.00 0.00 0.00 81 1011.2
20260506004703 51 56 1.7 6.1 0.00 0.00 0.00 81 1011.3
20260506004603 51 44 1.7 6.1 0.00 0.00 0.00 81 1011.4
20260506004504 51 38 1.7 6.1 0.00 0.00 0.00 81 1011.2
20260506004403 51 18 1.7 6.1 0.00 0.00 0.00 81 1011.2
20260506004315 51 18 1.7 6.1 0.00 0.00 0.00 81 1011.2
20260506004304 51 2 1.7 6.1 0.00 0.00 0.00 81 1011.2
20260506004203 51 359 1.7 6.1 0.00 0.00 0.00 81 1011.4
20260506004003 51 346 1.7 6.1 0.00 0.00 0.00 81 1011.3
20260506003903 51 349 1.7 6.1 0.00 0.00 0.00 81 1011.3
20260506003803 51 357 1.7 6.1 0.00 0.00 0.00 81 1011.2
20260506003703 51 338 1.7 6.1 0.00 0.00 0.00 81 1011.1
20260506003603 51 340 1.7 6.1 0.00 0.00 0.00 81 1011.4
20260506003503 51 309 1.7 6.1 0.00 0.00 0.00 81 1011.1
20260506003403 51 327 1.7 6.1 0.00 0.00 0.00 81 1011.1
20260506003303 51 348 1.7 6.1 0.00 0.00 0.00 81 1011.2
20260506003214 51 348 1.7 6.1 0.00 0.00 0.00 81 1011.2
20260506003203 51 351 1.7 6.1 0.00 0.00 0.00 81 1011.3
20260506003103 51 320 1.7 6.1 0.00 0.00 0.00 81 1011.2
20260506002903 51 341 1.7 5.2 0.00 0.00 0.00 81 1011.1
20260506002803 51 339 1.7 5.2 0.00 0.00 0.00 81 1011.3
20260506002703 51 346 1.7 5.2 0.00 0.00 0.00 81 1011.1
20260506002603 51 336 1.7 5.2 0.00 0.00 0.00 81 1011.2
20260506002503 51 354 1.7 7.0 0.00 0.00 0.00 81 1011.3
20260506002413 51 354 1.7 7.0 0.00 0.00 0.00 81 1011.3
20260506002403 51 344 1.7 7.0 0.00 0.00 0.00 81 1011.1
20260506002305 51 352 1.7 7.0 0.00 0.00 0.00 81 1011.1
20260506002103 51 356 1.7 7.0 0.00 0.00 0.00 81 1011.1
20260506002004 51 5 1.7 7.0 0.00 0.00 0.00 81 1011.4
20260506001903 51 359 1.7 7.0 0.00 0.00 0.00 81 1011.0
20260506001803 51 345 1.7 7.0 0.00 0.00 0.00 81 1011.2
20260506001703 51 352 1.7 7.0 0.00 0.00 0.00 80 1011.3
20260506001603 51 9 1.7 7.0 0.00 0.00 0.00 80 1011.4
20260506001503 51 355 1.7 7.0 0.00 0.00 0.00 81 1011.4
20260506001404 51 17 1.7 7.0 0.00 0.00 0.00 81 1011.3
20260506001312 51 17 1.7 7.0 0.00 0.00 0.00 81 1011.3
20260506001303 51 23 1.7 6.1 0.00 0.00 0.00 81 1011.3
20260506001203 51 10 1.7 6.1 0.00 0.00 0.00 80 1011.3
20260506001008 51 11 1.7 6.1 0.00 0.00 0.00 80 1011.2
20260506000917 51 357 1.7 6.1 0.00 0.00 0.00 80 1011.3
20260506000903 51 6 1.7 7.0 0.00 0.00 0.00 80 1011.4
20260506000815 51 6 1.7 7.0 0.00 0.00 0.00 80 1011.4
20260506000803 51 8 1.7 7.0 0.00 0.00 0.00 80 1011.3
20260506000714 51 8 1.7 7.0 0.00 0.00 0.00 80 1011.3
20260506000403 51 339 1.7 7.0 0.00 0.00 0.00 81 1011.3
20260506000303 51 325 1.7 7.0 0.00 0.00 0.00 81 1011.3
20260506000204 51 309 1.7 7.0 0.00 0.00 0.00 81 1011.4
20260506000014 51 309 1.7 7.0 0.00 0.00 0.00 81 1011.4
20260506000003 51 289 1.7 7.0 0.00 0.00 0.00 81 1011.2
20260505235903 51 275 1.7 7.0 0.00 0.00 0.00 81 1011.3
20260505235703 51 259 1.7 6.1 0.00 0.00 0.00 81 1011.3
20260505235603 51 280 1.7 7.0 0.00 0.00 0.00 81 1011.4
20260505235503 51 274 1.7 7.8 0.00 0.00 0.00 81 1011.3
20260505235403 51 291 1.7 7.8 0.00 0.00 0.00 81 1011.3
20260505235305 51 316 1.7 7.8 0.00 0.00 0.00 81 1011.3
20260505235203 51 310 1.7 7.8 0.00 0.00 0.00 81 1011.3
20260505235103 51 331 1.7 7.8 0.00 0.00 0.00 81 1011.2
20260505235004 51 2 1.7 7.8 0.00 0.00 0.00 81 1011.1
20260505234903 51 347 1.7 7.8 0.00 0.00 0.00 81 1011.4
20260505234803 51 335 1.7 7.8 0.00 0.00 0.00 81 1011.2
20260505234703 51 9 1.7 7.8 0.00 0.00 0.00 81 1011.3
20260505234603 51 54 1.7 7.8 0.00 0.00 0.00 81 1011.4
20260505234503 51 22 1.7 7.8 0.00 0.00 0.00 81 1011.3
20260505234404 51 12 1.7 7.8 0.00 0.00 0.00 81 1011.3
20260505234303 51 7 1.7 7.0 0.00 0.00 0.00 81 1011.3
20260505234203 51 4 1.7 7.0 0.00 0.00 0.00 81 1011.5
20260505234103 51 12 1.7 7.0 0.00 0.00 0.00 81 1011.2
20260505234003 51 343 1.7 7.0 0.00 0.00 0.00 81 1011.3
20260505233903 51 337 1.7 7.0 0.00 0.00 0.00 81 1011.3
20260505233803 51 339 1.7 6.1 0.00 0.00 0.00 82 1011.4
20260505233703 51 320 1.7 6.1 0.00 0.00 0.00 82 1011.2
20260505233603 51 319 1.7 6.1 0.00 0.00 0.00 81 1011.4
20260505233503 51 318 1.7 6.1 0.00 0.00 0.00 82 1011.3
20260505233418 51 318 1.7 6.1 0.00 0.00 0.00 82 1011.3
20260505233403 51 313 1.7 6.1 0.00 0.00 0.00 82 1011.5
20260505233303 51 304 1.7 6.1 0.00 0.00 0.00 82 1011.3
20260505233104 51 311 1.7 6.1 0.00 0.00 0.00 82 1011.2
20260505233003 51 20 1.7 6.1 0.00 0.00 0.00 82 1011.2
20260505232903 51 56 1.7 6.1 0.00 0.00 0.00 82 1011.3
20260505232803 51 67 1.7 6.1 0.00 0.00 0.00 82 1011.3
20260505232706 51 67 1.7 6.1 0.00 0.00 0.00 82 1011.3
20260505232603 51 63 1.7 6.1 0.00 0.00 0.00 82 1011.4
20260505232503 51 29 2.6 6.1 0.00 0.00 0.00 82 1011.2
20260505232403 51 343 2.6 6.1 0.00 0.00 0.00 82 1011.3
20260505232312 51 343 2.6 6.1 0.00 0.00 0.00 82 1011.3
20260505232305 51 324 2.6 6.1 0.00 0.00 0.00 82 1011.3
20260505232203 51 307 2.6 6.1 0.00 0.00 0.00 82 1011.2
20260505232003 51 298 2.6 7.8 0.00 0.00 0.00 82 1011.3
20260505231903 51 304 2.6 7.8 0.00 0.00 0.00 82 1011.2
20260505231803 51 323 2.6 7.8 0.00 0.00 0.00 82 1011.4
20260505231703 51 308 2.6 8.7 0.00 0.00 0.00 82 1011.4
20260505231603 51 292 2.6 8.7 0.00 0.00 0.00 83 1011.3
20260505231503 51 292 2.6 8.7 0.00 0.00 0.00 83 1011.2
20260505231403 51 300 1.7 8.7 0.00 0.00 0.00 83 1011.5
20260505231313 51 300 1.7 8.7 0.00 0.00 0.00 83 1011.5
20260505231303 51 291 1.7 8.7 0.00 0.00 0.00 83 1011.3
20260505231203 51 306 1.7 8.7 0.00 0.00 0.00 83 1011.3
20260505231014 51 315 1.7 8.7 0.00 0.00 0.00 83 1011.3
20260505231003 51 306 1.7 8.7 0.00 0.00 0.00 83 1011.3
20260505230912 51 306 1.7 8.7 0.00 0.00 0.00 83 1011.3
20260505230903 52 320 1.7 8.7 0.00 0.00 0.00 83 1011.3
20260505230603 52 321 1.7 8.7 0.00 0.00 0.00 83 1011.3
20260505230504 51 333 1.7 6.1 0.00 0.00 0.00 83 1011.2
20260505230404 52 347 1.7 6.1 0.00 0.00 0.00 83 1011.4
20260505230303 51 357 1.7 6.1 0.00 0.00 0.00 84 1011.5
20260505230203 52 340 1.7 6.1 0.00 0.00 0.00 84 1011.4
20260505230007 52 316 1.7 6.1 0.00 0.00 0.00 84 1011.3
20260505225903 52 314 1.7 6.1 0.00 0.00 0.00 84 1011.4
20260505225803 52 313 1.7 6.1 0.00 0.00 0.00 84 1011.4
20260505225704 52 351 1.7 6.1 0.00 0.00 0.00 84 1011.3
20260505225603 52 28 1.7 6.1 0.00 0.00 0.00 84 1011.5
20260505225503 52 33 1.7 6.1 0.00 0.00 0.00 84 1011.5
20260505225403 52 47 1.7 6.1 0.00 0.00 0.00 83 1011.3
20260505225305 52 42 1.7 6.1 0.00 0.00 0.00 83 1011.5
20260505225203 52 61 1.7 7.0 0.00 0.00 0.00 83 1011.5
20260505225103 52 94 1.7 7.0 0.00 0.00 0.00 83 1011.4
20260505225016 52 94 1.7 7.0 0.00 0.00 0.00 83 1011.4
20260505225003 52 64 1.7 7.0 0.00 0.00 0.00 83 1011.4
20260505224903 52 17 1.7 7.0 0.00 0.00 0.00 83 1011.4
20260505224703 51 167 1.7 7.0 0.00 0.00 0.00 83 1011.3
20260505224603 51 253 1.7 7.0 0.00 0.00 0.00 83 1011.6
20260505224514 51 253 1.7 7.0 0.00 0.00 0.00 83 1011.6
20260505224503 51 237 1.7 7.0 0.00 0.00 0.00 83 1011.5
20260505224403 51 241 1.7 7.0 0.00 0.00 0.00 83 1011.5
20260505224203 51 224 1.7 7.0 0.00 0.00 0.00 83 1011.6
20260505224103 51 287 2.6 6.1 0.00 0.00 0.00 83 1011.6
20260505224003 51 25 2.6 6.1 0.00 0.00 0.00 83 1011.5
20260505223903 51 36 2.6 6.1 0.00 0.00 0.00 83 1011.3
20260505223803 51 324 2.6 6.1 0.00 0.00 0.00 83 1011.6
20260505223703 51 80 2.6 6.1 0.00 0.00 0.00 83 1011.6
20260505223616 51 80 2.6 6.1 0.00 0.00 0.00 83 1011.6
20260505223603 51 67 2.6 6.1 0.00 0.00 0.00 83 1011.5
20260505223503 51 46 2.6 7.0 0.00 0.00 0.00 83 1011.5
20260505223303 51 352 2.6 7.0 0.00 0.00 0.00 83 1011.4
20260505223215 51 352 2.6 7.0 0.00 0.00 0.00 83 1011.4
20260505223203 51 307 2.6 7.0 0.00 0.00 0.00 83 1011.4
20260505223103 51 275 2.6 7.0 0.00 0.00 0.00 83 1011.4
20260505222903 51 236 1.7 7.0 0.00 0.00 0.00 83 1011.4
20260505222803 51 83 1.7 7.0 0.00 0.00 0.00 83 1011.5
20260505222703 51 91 1.7 7.0 0.00 0.00 0.00 83 1011.4
20260505222617 51 91 1.7 7.0 0.00 0.00 0.00 83 1011.4
20260505222603 51 159 2.6 7.0 0.00 0.00 0.00 83 1011.7
20260505222516 51 159 2.6 7.0 0.00 0.00 0.00 83 1011.7
20260505222503 51 144 2.6 7.0 0.00 0.00 0.00 83 1011.5
20260505222203 52 131 1.7 7.0 0.00 0.00 0.00 83 1011.6
20260505222103 52 118 1.7 7.0 0.00 0.00 0.00 83 1011.3
20260505222003 52 103 1.7 7.0 0.00 0.00 0.00 83 1011.4
20260505221903 52 117 1.7 7.0 0.00 0.00 0.00 83 1011.6
20260505221803 51 136 1.7 7.0 0.00 0.00 0.00 83 1011.4
20260505221703 51 248 1.7 7.0 0.00 0.00 0.00 83 1011.4
20260505221603 52 351 1.7 7.0 0.00 0.00 0.00 83 1011.6
20260505221517 52 351 1.7 7.0 0.00 0.00 0.00 83 1011.6
20260505221503 52 35 1.7 7.0 0.00 0.00 0.00 83 1011.5
20260505221415 52 35 1.7 7.0 0.00 0.00 0.00 83 1011.5
20260505221403 52 31 1.7 7.0 0.00 0.00 0.00 83 1011.5
20260505221212 52 54 1.7 7.0 0.00 0.00 0.00 83 1011.5
20260505221116 52 47 1.7 7.0 0.00 0.00 0.00 83 1011.6
20260505221103 52 38 1.7 7.0 0.00 0.00 0.00 83 1011.3
20260505220803 52 9 1.7 7.8 0.00 0.00 0.00 83 1011.5
20260505220703 52 38 1.7 7.8 0.00 0.00 0.00 82 1011.6
20260505220603 52 52 1.7 7.8 0.00 0.00 0.00 82 1011.4
20260505220503 52 52 1.7 7.8 0.00 0.00 0.00 82 1011.4
20260505220403 52 58 1.7 7.8 0.00 0.00 0.00 82 1011.6
20260505220303 52 48 1.7 7.8 0.00 0.00 0.00 82 1011.4
20260505220213 52 48 1.7 7.8 0.00 0.00 0.00 82 1011.4
20260505220203 52 79 1.7 7.8 0.00 0.00 0.00 82 1011.5
20260505220106 52 79 1.7 7.8 0.00 0.00 0.00 82 1011.5
20260505215903 52 100 1.7 7.8 0.00 0.00 0.00 82 1011.2
20260505215803 52 84 1.7 7.8 0.00 0.00 0.00 82 1011.4
20260505215716 52 84 1.7 7.8 0.00 0.00 0.00 82 1011.4
20260505215703 52 88 1.7 7.8 0.00 0.00 0.00 82 1011.5
20260505215603 52 94 1.7 7.8 0.00 0.00 0.00 81 1011.4
20260505215403 52 88 1.7 7.8 0.00 0.00 0.00 81 1011.4
20260505215305 52 89 1.7 7.8 0.00 0.00 0.00 81 1011.4
20260505215203 52 81 1.7 7.8 0.00 0.00 0.00 81 1011.4
20260505215113 52 81 1.7 7.8 0.00 0.00 0.00 81 1011.4
20260505215103 52 74 1.7 7.8 0.00 0.00 0.00 80 1011.6
20260505215003 52 87 1.7 7.8 0.00 0.00 0.00 80 1011.4
20260505214803 52 99 1.7 7.8 0.00 0.00 0.00 80 1011.6
20260505214704 52 90 1.7 7.8 0.00 0.00 0.00 80 1011.3
20260505214603 52 73 1.7 7.8 0.00 0.00 0.00 80 1011.4
20260505214503 52 81 1.7 6.1 0.00 0.00 0.00 79 1011.4
20260505214403 52 100 1.7 6.1 0.00 0.00 0.00 79 1011.3
20260505214316 52 100 1.7 6.1 0.00 0.00 0.00 79 1011.3
20260505214303 52 111 1.7 6.1 0.00 0.00 0.00 79 1011.5
20260505214203 52 129 1.7 6.1 0.00 0.00 0.00 79 1011.4
20260505214003 52 67 1.7 6.1 0.00 0.00 0.00 78 1011.6
20260505213903 52 96 1.7 6.1 0.00 0.00 0.00 78 1011.3
20260505213803 52 16 1.7 6.1 0.00 0.00 0.00 78 1011.4
20260505213713 52 16 1.7 6.1 0.00 0.00 0.00 78 1011.4
20260505213703 52 53 1.7 6.1 0.00 0.00 0.00 77 1011.3
20260505213604 52 35 1.7 6.1 0.00 0.00 0.00 77 1011.3
20260505213403 52 354 1.7 6.1 0.00 0.00 0.00 77 1011.4
20260505213303 52 339 1.7 6.1 0.00 0.00 0.00 76 1011.5
20260505213203 52 2 1.7 6.1 0.00 0.00 0.00 76 1011.5
20260505213103 52 346 1.7 6.1 0.00 0.00 0.00 76 1011.5
20260505213004 52 360 1.7 6.1 0.00 0.00 0.00 76 1011.3
20260505212903 52 6 1.7 6.1 0.00 0.00 0.00 76 1011.4
20260505212803 52 15 1.7 6.1 0.00 0.00 0.00 76 1011.5
20260505212703 52 11 1.7 7.8 0.00 0.00 0.00 75 1011.5
20260505212603 52 31 1.7 7.8 0.00 0.00 0.00 75 1011.5
20260505212516 52 31 1.7 7.8 0.00 0.00 0.00 75 1011.5
20260505212503 52 25 1.7 7.8 0.00 0.00 0.00 75 1011.6
20260505212404 52 4 1.7 7.8 0.00 0.00 0.00 75 1011.4
20260505212203 52 6 2.6 7.8 0.00 0.00 0.00 74 1011.3
20260505212103 52 19 1.7 7.8 0.00 0.00 0.00 74 1011.6
20260505212003 52 34 1.7 7.8 0.00 0.00 0.00 74 1011.5
20260505211903 52 34 1.7 7.8 0.00 0.00 0.00 74 1011.5
20260505211804 52 70 1.7 7.8 0.00 0.00 0.00 75 1011.5
20260505211703 52 62 1.7 7.8 0.00 0.00 0.00 75 1011.5
20260505211603 52 134 1.7 7.8 0.00 0.00 0.00 75 1011.5
20260505211503 52 144 1.7 5.2 0.00 0.00 0.00 75 1011.5
20260505211403 52 124 0.9 5.2 0.00 0.00 0.00 76 1011.5
20260505211303 52 100 0.9 5.2 0.00 0.00 0.00 76 1011.7
20260505211213 52 100 0.9 5.2 0.00 0.00 0.00 76 1011.7
20260505211204 52 111 0.9 5.2 0.00 0.00 0.00 76 1011.5
20260505211103 52 83 0.9 5.2 0.00 0.00 0.00 76 1011.6
20260505211015 52 83 0.9 5.2 0.00 0.00 0.00 76 1011.6
20260505210903 52 85 0.9 3.5 0.00 0.00 0.00 76 1011.5
20260505210812 52 85 0.9 3.5 0.00 0.00 0.00 76 1011.5
20260505210703 52 63 0.9 7.0 0.00 0.00 0.00 76 1011.5
20260505210504 52 23 0.9 7.0 0.00 0.00 0.00 76 1011.4
20260505210403 52 20 0.9 7.0 0.00 0.00 0.00 76 1011.4
20260505210304 52 34 0.9 7.0 0.00 0.00 0.00 77 1011.4
20260505210204 52 12 0.9 7.0 0.00 0.00 0.00 77 1011.2
20260505210003 52 8 1.7 7.0 0.00 0.00 0.00 77 1011.4
20260505205903 52 17 1.7 7.0 0.00 0.00 0.00 77 1011.4
20260505205803 52 31 1.7 7.0 0.00 0.00 0.00 77 1011.4
20260505205703 52 63 1.7 7.0 0.00 0.00 0.00 77 1011.3
20260505205603 52 79 1.7 6.1 0.00 0.00 0.00 77 1011.5
20260505205503 52 100 1.7 5.2 0.00 0.00 0.00 77 1011.3
20260505205403 52 105 0.9 5.2 0.00 0.00 0.00 77 1011.4
20260505205305 52 112 1.7 5.2 0.00 0.00 0.00 78 1011.3
20260505205203 52 100 1.7 5.2 0.00 0.00 0.00 78 1011.3
20260505205103 52 97 1.7 5.2 0.00 0.00 0.00 78 1011.5
20260505205003 52 95 1.7 5.2 0.00 0.00 0.00 78 1011.3
20260505204903 52 105 1.7 6.1 0.00 0.00 0.00 78 1011.3
20260505204803 52 113 1.7 6.1 0.00 0.00 0.00 78 1011.5
20260505204703 52 99 1.7 6.1 0.00 0.00 0.00 78 1011.4
20260505204603 51 110 1.7 6.1 0.00 0.00 0.00 78 1011.5
20260505204503 51 150 1.7 6.1 0.00 0.00 0.00 77 1011.4
20260505204403 51 145 1.7 6.1 0.00 0.00 0.00 78 1011.2
20260505204303 51 124 1.7 6.1 0.00 0.00 0.00 78 1011.5
20260505204203 51 133 1.7 6.1 0.00 0.00 0.00 78 1011.3
20260505204103 51 167 1.7 6.1 0.00 0.00 0.00 78 1011.3
20260505204013 51 167 1.7 6.1 0.00 0.00 0.00 78 1011.3
20260505204004 51 135 1.7 6.1 0.00 0.00 0.00 78 1011.3
20260505203903 51 72 1.7 6.1 0.00 0.00 0.00 78 1011.5
20260505203704 51 107 1.7 6.1 0.00 0.00 0.00 78 1011.3
20260505203604 51 2 1.7 7.0 0.00 0.00 0.00 79 1011.3
20260505203503 51 51 1.7 7.0 0.00 0.00 0.00 79 1011.4
20260505203403 52 4 1.7 7.0 0.00 0.00 0.00 79 1011.4
20260505203313 52 4 1.7 7.0 0.00 0.00 0.00 79 1011.4
20260505203303 52 354 1.7 7.0 0.00 0.00 0.00 80 1011.5
20260505203203 52 35 1.7 7.0 0.00 0.00 0.00 80 1011.3
20260505203004 51 71 1.7 7.0 0.00 0.00 0.00 80 1011.5
20260505202903 52 78 1.7 7.0 0.00 0.00 0.00 80 1011.3
20260505202803 52 80 1.7 7.0 0.00 0.00 0.00 80 1011.4
20260505202703 52 93 1.7 7.0 0.00 0.00 0.00 80 1011.4
20260505202603 52 97 1.7 7.0 0.00 0.00 0.00 80 1011.5
20260505202517 52 97 1.7 7.0 0.00 0.00 0.00 80 1011.5
20260505202503 52 87 1.7 7.0 0.00 0.00 0.00 80 1011.3
20260505202403 52 102 1.7 6.1 0.00 0.00 0.00 80 1011.5
20260505202212 52 97 1.7 6.1 0.00 0.00 0.00 80 1011.6
20260505202203 52 99 1.7 6.1 0.00 0.00 0.00 80 1011.5
20260505202103 52 98 0.9 6.1 0.00 0.00 0.00 80 1011.3
20260505201913 52 100 0.9 6.1 0.00 0.00 0.00 80 1011.2
20260505201903 51 112 0.9 6.1 0.00 0.00 0.00 80 1011.3
20260505201803 52 96 0.9 6.1 0.00 0.00 0.00 80 1011.3
20260505201603 52 109 0.9 6.1 0.00 0.00 0.00 80 1011.3
20260505201503 52 97 0.9 6.1 0.00 0.00 0.00 80 1011.3
20260505201416 52 97 0.9 6.1 0.00 0.00 0.00 80 1011.3
20260505201403 52 73 0.9 6.1 0.00 0.00 0.00 80 1011.2
20260505201303 52 19 0.9 6.1 0.00 0.00 0.00 80 1011.2
20260505201117 52 347 0.9 6.1 0.00 0.00 0.00 80 1011.2
20260505201103 52 329 1.7 6.1 0.00 0.00 0.00 80 1011.2
20260505201003 52 333 1.7 6.1 0.00 0.00 0.00 80 1011.1
20260505200914 52 333 1.7 6.1 0.00 0.00 0.00 80 1011.1
20260505200803 52 338 1.7 5.2 0.00 0.00 0.00 80 1011.1
20260505200615 52 337 1.7 5.2 0.00 0.00 0.00 80 1011.0
20260505200604 52 348 1.7 5.2 0.00 0.00 0.00 80 1011.1
20260505200503 52 349 1.7 5.2 0.00 0.00 0.00 80 1011.0
20260505200304 52 355 1.7 5.2 0.00 0.00 0.00 80 1011.2
20260505200203 52 360 0.9 5.2 0.00 0.00 0.00 80 1011.0
20260505200003 52 19 0.9 5.2 0.00 0.00 0.00 80 1011.1
20260505195904 52 4 0.9 5.2 0.00 0.00 0.00 80 1011.3
20260505195804 52 13 0.9 2.6 0.00 0.00 0.00 80 1011.1
20260505195703 52 11 0.9 2.6 0.00 0.00 0.00 80 1011.2
20260505195603 52 14 0.9 2.6 0.00 0.00 0.00 80 1011.2
20260505195515 52 14 0.9 2.6 0.00 0.00 0.00 80 1011.2
20260505195503 52 9 0.9 2.6 0.00 0.00 0.00 80 1011.2
20260505195403 52 13 0.9 2.6 0.00 0.00 0.00 80 1011.1
20260505195317 52 13 0.9 2.6 0.00 0.00 0.00 80 1011.1
20260505195215 52 14 0.9 3.5 0.00 0.00 0.00 80 1011.1
20260505195204 52 30 0.9 3.5 0.00 0.00 0.00 80 1011.0
20260505194903 52 56 0.9 3.5 0.00 0.00 0.00 80 1010.9
20260505194803 52 66 0.9 3.5 0.00 0.00 0.00 80 1010.9
20260505194703 52 77 0.9 3.5 0.00 0.00 0.00 80 1010.9
20260505194603 52 55 0.9 3.5 0.00 0.00 0.00 80 1011.0
20260505194503 52 64 0.9 5.2 0.00 0.00 0.00 80 1011.0
20260505194414 52 64 0.9 5.2 0.00 0.00 0.00 80 1011.0
20260505194404 52 92 1.7 5.2 0.00 0.00 0.00 80 1010.8
20260505194303 52 118 1.7 5.2 0.00 0.00 0.00 80 1010.9
20260505194115 52 136 1.7 5.2 0.00 0.00 0.00 80 1010.9
20260505194103 52 151 1.7 5.2 0.00 0.00 0.00 80 1011.0
20260505194003 52 166 1.7 5.2 0.00 0.00 0.00 80 1011.0
20260505193912 52 166 1.7 5.2 0.00 0.00 0.00 80 1011.0
20260505193804 52 182 1.7 5.2 0.00 0.00 0.00 80 1011.0
20260505193603 52 145 0.9 5.2 0.00 0.00 0.00 80 1011.0
20260505193504 52 135 1.7 5.2 0.00 0.00 0.00 80 1010.9
20260505193403 52 108 0.9 5.2 0.00 0.00 0.00 80 1010.8
20260505193314 52 108 0.9 5.2 0.00 0.00 0.00 80 1010.8
20260505193304 52 78 0.9 3.5 0.00 0.00 0.00 80 1010.8
20260505193217 52 78 0.9 3.5 0.00 0.00 0.00 80 1010.8
20260505193203 52 91 0.9 5.2 0.00 0.00 0.00 80 1010.8
20260505192903 52 50 0.9 5.2 0.00 0.00 0.00 80 1010.8
20260505192803 52 45 0.9 5.2 0.00 0.00 0.00 79 1010.8
20260505192703 52 45 0.9 5.2 0.00 0.00 0.00 79 1011.0
20260505192603 52 39 0.9 5.2 0.00 0.00 0.00 79 1010.9
20260505192503 52 54 0.9 5.2 0.00 0.00 0.00 79 1010.9
20260505192403 52 52 0.9 5.2 0.00 0.00 0.00 79 1010.8
20260505192305 52 50 0.9 5.2 0.00 0.00 0.00 79 1010.8
20260505192203 52 55 0.9 5.2 0.00 0.00 0.00 79 1010.7
20260505192103 52 74 0.9 5.2 0.00 0.00 0.00 79 1010.6
20260505192004 52 91 0.9 5.2 0.00 0.00 0.00 79 1010.7
20260505191903 52 101 0.9 5.2 0.00 0.00 0.00 79 1010.8
20260505191804 52 106 0.9 5.2 0.00 0.00 0.00 79 1010.8
20260505191706 52 106 0.9 5.2 0.00 0.00 0.00 79 1010.8
20260505191603 52 113 0.9 5.2 0.00 0.00 0.00 79 1010.7
20260505191504 52 110 0.9 5.2 0.00 0.00 0.00 78 1010.7
20260505191403 52 102 0.9 5.2 0.00 0.00 0.00 78 1010.8
20260505191303 53 104 0.9 5.2 0.00 0.00 0.00 78 1010.6
20260505191203 53 102 0.9 5.2 0.00 0.00 0.00 78 1010.7
20260505191103 53 109 0.9 5.2 0.00 0.00 0.00 78 1010.8
20260505191003 53 110 0.9 3.5 0.00 0.00 0.00 78 1010.6
20260505190915 53 110 0.9 3.5 0.00 0.00 0.00 78 1010.6
20260505190903 53 104 0.9 3.5 0.00 0.00 0.00 78 1010.5
20260505190803 53 99 0.9 3.5 0.00 0.00 0.00 78 1010.6
20260505190603 53 114 0.9 3.5 0.00 0.00 0.00 78 1010.8
20260505190503 53 111 0.9 3.5 0.00 0.00 0.00 78 1010.5
20260505190404 53 114 0.9 3.5 0.00 0.00 0.00 78 1010.7
20260505190304 53 114 0.9 3.5 0.00 0.00 0.00 78 1010.8
20260505190204 53 116 0.9 3.5 0.00 0.00 0.00 78 1010.7
20260505190103 53 128 0.9 3.5 0.00 0.00 0.00 77 1010.7
20260505190012 53 128 0.9 3.5 0.00 0.00 0.00 77 1010.7
20260505190004 53 129 0.9 3.5 0.00 0.00 0.00 77 1010.7
20260505185904 53 128 0.9 3.5 0.00 0.00 0.00 77 1010.8
20260505185704 53 109 0.9 3.5 0.00 0.00 0.00 77 1010.9
20260505185603 53 104 0.9 3.5 0.00 0.00 0.00 77 1010.7
20260505185503 53 136 0.9 5.2 0.00 0.00 0.00 77 1010.7
20260505185414 53 136 0.9 5.2 0.00 0.00 0.00 77 1010.7
20260505185403 53 132 0.9 5.2 0.00 0.00 0.00 77 1010.8
20260505185317 53 132 0.9 5.2 0.00 0.00 0.00 77 1010.8
20260505185305 53 108 0.9 5.2 0.00 0.00 0.00 77 1010.7
20260505185216 53 108 0.9 5.2 0.00 0.00 0.00 77 1010.7
20260505184903 53 88 0.9 5.2 0.00 0.00 0.00 76 1010.8
20260505184803 53 100 0.9 5.2 0.00 0.00 0.00 76 1010.6
20260505184703 53 111 0.9 5.2 0.00 0.00 0.00 76 1010.9
20260505184603 53 113 0.9 5.2 0.00 0.00 0.00 76 1010.7
20260505184516 53 113 0.9 5.2 0.00 0.00 0.00 76 1010.7
20260505184504 53 101 0.9 5.2 0.00 0.00 0.00 76 1010.8
20260505184415 53 101 0.9 5.2 0.00 0.00 0.00 76 1010.8
20260505184403 53 116 0.9 5.2 0.00 0.00 0.00 76 1010.7
20260505184103 53 124 0.9 3.5 0.00 0.00 0.00 76 1010.7
20260505184003 53 128 0.9 3.5 0.00 0.00 0.00 76 1010.7
20260505183903 53 133 0.9 3.5 0.00 0.00 0.00 76 1010.8
20260505183804 53 133 0.9 3.5 0.00 0.00 0.00 75 1010.7
20260505183703 53 125 0.9 3.5 0.00 0.00 0.00 75 1010.8
20260505183603 53 138 0.9 3.5 0.00 0.00 0.00 75 1010.7
20260505183503 53 126 0.9 5.2 0.00 0.00 0.00 75 1010.6
20260505183403 53 109 0.9 5.2 0.00 0.00 0.00 75 1010.8
20260505183303 53 92 0.9 5.2 0.00 0.00 0.00 75 1010.7
20260505183203 53 92 0.9 5.2 0.00 0.00 0.00 75 1010.6
20260505183104 53 86 0.9 5.2 0.00 0.00 0.00 75 1010.6
20260505183003 53 87 0.9 5.2 0.00 0.00 0.00 75 1010.7
20260505182914 53 87 0.9 5.2 0.00 0.00 0.00 75 1010.7
20260505182903 53 84 0.9 5.2 0.00 0.00 0.00 75 1010.5
20260505182803 53 84 0.9 6.1 0.00 0.00 0.00 74 1010.5
20260505182603 53 47 0.9 6.1 0.00 0.00 0.00 75 1010.7
20260505182503 53 44 0.9 6.1 0.00 0.00 0.00 75 1010.6
20260505182404 53 53 0.9 6.1 0.00 0.00 0.00 75 1010.7
20260505182305 53 49 0.9 6.1 0.00 0.00 0.00 74 1010.7
20260505182203 53 52 0.9 6.1 0.00 0.00 0.00 74 1010.6
20260505182103 53 42 0.9 6.1 0.00 0.00 0.00 74 1010.5
20260505182003 53 43 0.9 6.1 0.00 0.00 0.00 74 1010.7
20260505181903 53 41 0.9 6.1 0.00 0.00 0.00 74 1010.6
20260505181804 53 39 0.9 6.1 0.00 0.00 0.00 74 1010.5
20260505181703 54 61 0.9 6.1 0.00 0.00 0.00 74 1010.7
20260505181603 54 69 0.9 5.2 0.00 0.00 0.00 75 1010.6
20260505181503 54 73 0.9 2.6 0.00 0.00 0.00 75 1010.5
20260505181403 54 68 0.9 2.6 0.00 0.00 0.00 75 1010.8
20260505181316 54 68 0.9 2.6 0.00 0.00 0.00 75 1010.8
20260505181303 54 104 0.9 2.6 0.00 0.00 0.00 75 1010.6
20260505181215 54 104 0.9 2.6 0.00 0.00 0.00 75 1010.6
20260505181203 54 112 0.9 2.6 0.00 0.00 0.00 75 1010.6
20260505180903 54 153 0.9 2.6 0.00 0.00 0.00 74 1010.5
20260505180803 54 202 0.9 2.6 0.00 0.00 0.00 74 1010.6
20260505180703 54 258 0.9 2.6 0.00 0.00 0.00 74 1010.7
20260505180603 54 272 0.9 2.6 0.00 0.00 0.00 74 1010.6
20260505180503 54 237 0.9 3.5 0.00 0.00 0.00 74 1010.7
20260505180403 54 218 0.9 3.5 0.00 0.00 0.00 74 1010.7
20260505180303 54 244 0.9 3.5 0.00 0.00 0.00 74 1010.6
20260505180203 54 252 0.9 3.5 0.00 0.00 0.00 74 1010.7
20260505180114 54 252 0.9 3.5 0.00 0.00 0.00 74 1010.7
20260505180103 54 246 0.9 3.5 0.00 0.00 0.00 74 1010.6
20260505180004 54 279 0.9 3.5 0.00 0.00 0.00 74 1010.6
20260505175803 54 295 0.9 5.2 0.00 0.00 0.00 74 1010.7
20260505175703 54 41 0.9 5.2 0.00 0.00 0.00 74 1010.6
20260505175603 54 166 0.9 5.2 0.00 0.00 0.00 74 1010.7
20260505175503 54 77 0.9 5.2 0.00 0.00 0.00 74 1010.6
20260505175403 54 95 0.9 5.2 0.00 0.00 0.00 74 1010.8
20260505175305 54 90 0.9 5.2 0.00 0.00 0.00 74 1010.7
20260505175203 54 82 0.9 5.2 0.00 0.00 0.00 74 1010.5
20260505175103 54 67 0.9 5.2 0.00 0.00 0.00 73 1010.6
20260505175003 54 78 0.9 5.2 0.00 0.00 0.00 74 1010.4
20260505174903 54 76 0.9 5.2 0.00 0.00 0.00 74 1010.7
20260505174803 54 73 0.9 5.2 0.00 0.00 0.00 74 1010.6
20260505174703 54 68 0.9 5.2 0.00 0.00 0.00 74 1010.4
20260505174613 54 68 0.9 5.2 0.00 0.00 0.00 74 1010.4
20260505174603 54 60 0.9 5.2 0.00 0.00 0.00 74 1010.4
20260505174503 54 68 0.9 5.2 0.00 0.00 0.00 74 1010.6
20260505174304 54 71 0.9 5.2 0.00 0.00 0.00 74 1010.6
20260505174203 54 80 0.9 5.2 0.00 0.00 0.00 74 1010.6
20260505174103 54 88 0.9 5.2 0.00 0.00 0.00 74 1010.6
20260505174015 54 88 0.9 5.2 0.00 0.00 0.00 74 1010.6
20260505174003 54 88 0.9 5.2 0.00 0.00 0.00 73 1010.5
20260505173903 54 90 0.9 5.2 0.00 0.00 0.00 73 1010.5
20260505173703 54 103 0.9 3.5 0.00 0.00 0.00 73 1010.5
20260505173604 54 110 0.9 3.5 0.00 0.00 0.00 73 1010.6
20260505173503 54 112 0.9 3.5 0.00 0.00 0.00 73 1010.5
20260505173403 55 107 0.9 3.5 0.00 0.00 0.00 73 1010.7
20260505173303 55 101 0.9 3.5 0.00 0.00 0.00 73 1010.5
20260505173214 55 101 0.9 3.5 0.00 0.00 0.00 73 1010.5
20260505173203 55 95 0.9 3.5 0.00 0.00 0.00 73 1010.6
20260505173117 55 95 0.9 3.5 0.00 0.00 0.00 73 1010.6
20260505173103 55 100 0.9 3.5 0.00 0.00 0.00 73 1010.7
20260505172803 55 106 0.9 3.5 0.00 0.00 0.00 72 1010.7
20260505172704 55 99 0.9 3.5 0.00 0.00 0.00 72 1010.5
20260505172604 55 99 0.9 3.5 0.00 0.00 0.00 72 1010.4
20260505172503 55 83 0.9 3.5 0.00 0.00 0.00 73 1010.4
20260505172403 55 81 0.9 3.5 0.00 0.00 0.00 73 1010.5
20260505172316 55 81 0.9 3.5 0.00 0.00 0.00 73 1010.5
20260505172305 55 88 0.9 3.5 0.00 0.00 0.00 73 1010.6
20260505172203 55 118 0.9 3.5 0.00 0.00 0.00 73 1010.5
20260505172004 55 105 0.9 3.5 0.00 0.00 0.00 73 1010.5
20260505171903 55 99 0.9 3.5 0.00 0.00 0.00 72 1010.6
20260505171803 55 101 0.9 5.2 0.00 0.00 0.00 72 1010.5
20260505171717 55 101 0.9 5.2 0.00 0.00 0.00 72 1010.5
20260505171703 55 114 0.9 5.2 0.00 0.00 0.00 72 1010.5
20260505171603 55 105 0.9 5.2 0.00 0.00 0.00 72 1010.4
20260505171413 55 104 1.7 5.2 0.00 0.00 0.00 72 1010.8
20260505171403 55 102 1.7 5.2 0.00 0.00 0.00 72 1010.6
20260505171303 55 95 1.7 5.2 0.00 0.00 0.00 72 1010.6
20260505171103 55 92 0.9 5.2 0.00 0.00 0.00 72 1010.5
20260505171003 55 89 1.7 5.2 0.00 0.00 0.00 72 1010.6
20260505170904 55 93 1.7 5.2 0.00 0.00 0.00 72 1010.8
20260505170803 56 88 0.9 5.2 0.00 0.00 0.00 72 1010.6
20260505170704 55 82 1.7 5.2 0.00 0.00 0.00 72 1010.6
20260505170603 55 84 0.9 5.2 0.00 0.00 0.00 72 1010.4
20260505170503 56 89 0.9 5.2 0.00 0.00 0.00 72 1010.4
20260505170404 56 85 0.9 5.2 0.00 0.00 0.00 72 1010.6
20260505170303 56 77 0.9 5.2 0.00 0.00 0.00 72 1010.4
20260505170203 55 75 0.9 3.5 0.00 0.00 0.00 72 1010.7
20260505170115 55 75 0.9 3.5 0.00 0.00 0.00 72 1010.7
20260505170003 55 62 0.9 3.5 0.00 0.00 0.00 72 1010.5
20260505165803 55 54 0.9 2.6 0.00 0.00 0.00 73 1010.6
20260505165703 55 53 0.9 3.5 0.00 0.00 0.00 73 1010.7
20260505165603 55 50 0.9 3.5 0.00 0.00 0.00 73 1010.7
20260505165503 55 57 0.9 3.5 0.00 0.00 0.00 73 1010.6
20260505165404 55 71 0.9 3.5 0.00 0.00 0.00 72 1010.6
20260505165305 55 87 0.9 3.5 0.00 0.00 0.00 72 1010.6
20260505165217 55 87 0.9 3.5 0.00 0.00 0.00 72 1010.6
20260505165203 55 93 1.7 3.5 0.00 0.00 0.00 72 1010.6
20260505165103 55 91 1.7 3.5 0.00 0.00 0.00 72 1010.6
20260505164903 55 95 1.7 3.5 0.00 0.00 0.00 73 1010.7
20260505164803 55 101 0.9 3.5 0.00 0.00 0.00 73 1010.6
20260505164703 55 108 0.9 3.5 0.00 0.00 0.00 73 1010.7
20260505164604 55 111 0.9 3.5 0.00 0.00 0.00 73 1010.6
20260505164503 55 100 0.9 3.5 0.00 0.00 0.00 73 1010.7
20260505164403 55 85 0.9 3.5 0.00 0.00 0.00 73 1010.7
20260505164303 55 72 0.9 3.5 0.00 0.00 0.00 73 1010.5
20260505164206 55 72 0.9 3.5 0.00 0.00 0.00 73 1010.5
20260505164117 55 53 0.9 3.5 0.00 0.00 0.00 73 1010.5
20260505164103 55 69 0.9 3.5 0.00 0.00 0.00 73 1010.7
20260505164004 55 81 0.9 3.5 0.00 0.00 0.00 73 1010.5
20260505163803 55 84 0.9 3.5 0.00 0.00 0.00 73 1010.5
20260505163703 55 77 0.9 3.5 0.00 0.00 0.00 73 1010.5
20260505163604 55 84 0.9 2.6 0.00 0.00 0.00 73 1010.6
20260505163503 55 87 0.9 2.6 0.00 0.00 0.00 73 1010.7
20260505163404 55 97 0.9 2.6 0.00 0.00 0.00 72 1010.7
20260505163303 55 101 0.9 3.5 0.00 0.00 0.00 73 1010.9
20260505163203 55 105 0.9 3.5 0.00 0.00 0.00 73 1010.8
20260505163103 55 102 0.9 3.5 0.00 0.00 0.00 73 1010.7
20260505163016 55 102 0.9 3.5 0.00 0.00 0.00 73 1010.7
20260505163003 55 99 0.9 3.5 0.00 0.00 0.00 73 1010.7
20260505162915 55 99 0.9 3.5 0.00 0.00 0.00 73 1010.7
20260505162903 55 94 0.9 3.5 0.00 0.00 0.00 73 1010.7
20260505162604 55 60 0.9 3.5 0.00 0.00 0.00 72 1010.7
20260505162503 55 46 0.9 3.5 0.00 0.00 0.00 72 1010.8
20260505162403 55 44 0.9 3.5 0.00 0.00 0.00 72 1010.5
20260505162317 55 44 0.9 3.5 0.00 0.00 0.00 72 1010.5
20260505162306 55 43 0.9 3.5 0.00 0.00 0.00 72 1010.4
20260505162204 55 45 0.9 3.5 0.00 0.00 0.00 72 1010.8
20260505162003 55 35 0.9 2.6 0.00 0.00 0.00 72 1010.5
20260505161903 55 48 0.9 2.6 0.00 0.00 0.00 72 1010.8
20260505161804 55 61 0.9 2.6 0.00 0.00 0.00 72 1010.3
20260505161713 55 61 0.9 2.6 0.00 0.00 0.00 72 1010.3
20260505161703 55 75 0.9 2.6 0.00 0.00 0.00 72 1010.5
20260505161603 55 82 1.7 2.6 0.00 0.00 0.00 72 1010.5
20260505161403 55 95 1.7 3.5 0.00 0.00 0.00 71 1010.7
20260505161312 55 95 1.7 3.5 0.00 0.00 0.00 71 1010.7
20260505161303 55 96 1.7 3.5 0.00 0.00 0.00 71 1010.7
20260505161203 56 92 1.7 3.5 0.00 0.00 0.00 72 1010.6
20260505161115 56 92 1.7 3.5 0.00 0.00 0.00 72 1010.6
20260505161004 56 92 1.7 3.5 0.00 0.00 0.00 72 1010.6
20260505160804 56 65 1.7 3.5 0.00 0.00 0.00 72 1010.6
20260505160703 56 60 1.7 3.5 0.00 0.00 0.00 72 1010.6
20260505160603 56 60 1.7 3.5 0.00 0.00 0.00 72 1010.7
20260505160516 56 60 1.7 3.5 0.00 0.00 0.00 72 1010.7
20260505160503 56 61 1.7 3.5 0.00 0.00 0.00 72 1010.5
20260505160406 56 61 1.7 3.5 0.00 0.00 0.00 72 1010.5
20260505160203 56 50 1.7 3.5 0.00 0.00 0.00 72 1010.6
20260505153304 56 102 0.9 6.1 0.00 0.00 0.00 74 1010.9
20260505153215 56 102 0.9 6.1 0.00 0.00 0.00 74 1010.9
20260505153204 56 103 1.7 6.1 0.00 0.00 0.00 74 1010.7
20260505153103 56 102 1.7 6.1 0.00 0.00 0.00 75 1011.0
20260505152903 56 92 0.9 6.1 0.00 0.00 0.00 74 1010.9
20260505152804 56 82 1.7 6.1 0.00 0.00 0.00 74 1010.9
20260505152703 56 89 0.9 6.1 0.00 0.00 0.00 75 1011.0
20260505152603 56 71 0.9 5.2 0.00 0.00 0.00 75 1010.9
20260505152503 56 68 1.7 5.2 0.00 0.00 0.00 75 1010.9
20260505152403 56 71 1.7 5.2 0.00 0.00 0.00 74 1010.9
20260505152305 56 71 1.7 5.2 0.00 0.00 0.00 74 1010.9
20260505152203 56 57 1.7 5.2 0.00 0.00 0.00 75 1010.9
20260505152103 56 43 1.7 5.2 0.00 0.00 0.00 75 1011.0
20260505152013 56 43 1.7 5.2 0.00 0.00 0.00 75 1011.0
20260505152003 56 43 1.7 5.2 0.00 0.00 0.00 75 1010.8
20260505151903 56 39 1.7 5.2 0.00 0.00 0.00 75 1011.0
20260505151703 56 51 1.7 5.2 0.00 0.00 0.00 75 1010.9
20260505151603 56 59 1.7 5.2 0.00 0.00 0.00 75 1011.0
20260505151503 56 74 1.7 5.2 0.00 0.00 0.00 75 1011.0
20260505151404 56 61 1.7 5.2 0.00 0.00 0.00 75 1011.0
20260505151303 56 66 1.7 5.2 0.00 0.00 0.00 75 1011.0
20260505151217 56 66 1.7 5.2 0.00 0.00 0.00 75 1011.0
20260505151203 56 80 1.7 5.2 0.00 0.00 0.00 75 1010.8
20260505151103 56 90 0.9 5.2 0.00 0.00 0.00 75 1011.0
20260505150903 56 107 0.9 6.1 0.00 0.00 0.00 76 1011.0
20260505150803 56 106 1.7 6.1 0.00 0.00 0.00 75 1011.0
20260505150704 56 113 1.7 6.1 0.00 0.00 0.00 75 1011.1
20260505150603 56 120 1.7 6.1 0.00 0.00 0.00 75 1010.9
20260505150504 56 106 1.7 6.1 0.00 0.00 0.00 75 1011.1
20260505150415 56 106 1.7 6.1 0.00 0.00 0.00 75 1011.1
20260505150403 56 113 1.7 6.1 0.00 0.00 0.00 75 1011.0
20260505150304 56 103 1.7 6.1 0.00 0.00 0.00 75 1011.0
20260505150218 56 103 1.7 6.1 0.00 0.00 0.00 75 1011.0
20260505150116 56 93 1.7 6.1 0.00 0.00 0.00 75 1011.1
20260505140603 57 65 1.7 6.1 0.00 0.00 0.00 73 1011.6
20260505140503 57 81 1.7 6.1 0.00 0.00 0.00 73 1011.3
20260505140404 57 99 1.7 6.1 0.00 0.00 0.00 73 1011.3
20260505140303 57 66 1.7 6.1 0.00 0.00 0.00 73 1011.3
20260505140203 57 72 1.7 6.1 0.00 0.00 0.00 73 1011.2